Wetterdaten: Sonntag, 20.03.2022
Datum Zeit Temp. Aussen Temp. o. S. Temp +5cm Feuchte Auss Luftdruck Regen Sonnenschein Regendauer Solar Windben Empfang
20.03.2022 00:00 5,9 C 5,0 C 1,7 C 70 % 1034,1 hPa 0,0 l/m 0 min 0 min 0 W/m 9,7 km/h (2 Bft) 95,74 %
20.03.2022 00:02 5,9 C 5,0 C 1,7 C 70 % 1034,0 hPa 0,0 l/m 0 min 0 min 0 W/m 9,7 km/h (2 Bft) 95,45 %
20.03.2022 00:04 6,0 C 5,0 C 1,7 C 70 % 1034,0 hPa 0,0 l/m 0 min 0 min 0 W/m 9,7 km/h (2 Bft) 97,87 %
20.03.2022 00:08 6,0 C 5,0 C 1,7 C 69 % 1034,0 hPa 0,0 l/m 0 min 0 min 0 W/m 12,9 km/h (3 Bft) 97,89 %
20.03.2022 00:10 6,0 C 5,0 C 1,7 C 69 % 1034,0 hPa 0,0 l/m 0 min 0 min 0 W/m 16,1 km/h (3 Bft) 97,87 %
20.03.2022 00:12 5,9 C 5,0 C 1,7 C 69 % 1033,9 hPa 0,0 l/m 0 min 0 min 0 W/m 9,7 km/h (2 Bft) 97,83 %
20.03.2022 00:14 5,9 C 5,0 C 1,7 C 69 % 1033,9 hPa 0,0 l/m 0 min 0 min 0 W/m 9,7 km/h (2 Bft) 97,87 %
20.03.2022 00:16 5,9 C 5,0 C 1,7 C 68 % 1033,8 hPa 0,0 l/m 0 min 0 min 0 W/m 16,1 km/h (3 Bft) 97,87 %
20.03.2022 00:18 6,0 C 5,0 C 1,7 C 68 % 1033,8 hPa 0,0 l/m 0 min 0 min 0 W/m 16,1 km/h (3 Bft) 95,74 %
20.03.2022 00:20 6,0 C 5,0 C 1,7 C 67 % 1033,8 hPa 0,0 l/m 0 min 0 min 0 W/m 9,7 km/h (2 Bft) 100,00 %
20.03.2022 00:22 6,0 C 5,0 C 1,7 C 67 % 1033,8 hPa 0,0 l/m 0 min 0 min 0 W/m 9,7 km/h (2 Bft) 100,00 %
20.03.2022 00:24 6,0 C 5,0 C 1,7 C 67 % 1033,7 hPa 0,0 l/m 0 min 0 min 0 W/m 16,1 km/h (3 Bft) 100,00 %
20.03.2022 00:26 6,0 C 5,0 C 1,7 C 67 % 1033,7 hPa 0,0 l/m 0 min 0 min 0 W/m 9,7 km/h (2 Bft) 100,00 %
20.03.2022 00:28 6,1 C 5,0 C 1,7 C 67 % 1033,7 hPa 0,0 l/m 0 min 0 min 0 W/m 9,7 km/h (2 Bft) 100,00 %
20.03.2022 00:30 6,0 C 5,0 C 1,7 C 67 % 1033,6 hPa 0,0 l/m 0 min 0 min 0 W/m 12,9 km/h (3 Bft) 100,00 %
20.03.2022 00:32 6,0 C 5,0 C 1,1 C 67 % 1033,6 hPa 0,0 l/m 0 min 0 min 0 W/m 6,4 km/h (2 Bft) 100,00 %
20.03.2022 00:34 5,9 C 5,0 C 1,1 C 67 % 1033,6 hPa 0,0 l/m 0 min 0 min 0 W/m 6,4 km/h (2 Bft) 100,00 %
20.03.2022 00:36 5,9 C 5,0 C 1,1 C 67 % 1033,6 hPa 0,0 l/m 0 min 0 min 0 W/m 6,4 km/h (2 Bft) 100,00 %
20.03.2022 00:38 5,8 C 4,4 C 1,1 C 68 % 1033,6 hPa 0,0 l/m 0 min 0 min 0 W/m 12,9 km/h (3 Bft) 100,00 %
20.03.2022 00:40 5,8 C 4,4 C 1,1 C 68 % 1033,5 hPa 0,0 l/m 0 min 0 min 0 W/m 16,1 km/h (3 Bft) 100,00 %
20.03.2022 00:42 5,7 C 4,4 C 1,1 C 68 % 1033,5 hPa 0,0 l/m 0 min 0 min 0 W/m 12,9 km/h (3 Bft) 100,00 %
20.03.2022 00:44 5,7 C 5,0 C 1,1 C 68 % 1033,4 hPa 0,0 l/m 0 min 0 min 0 W/m 19,3 km/h (3 Bft) 100,00 %
20.03.2022 00:46 5,7 C 5,0 C 1,1 C 68 % 1033,4 hPa 0,0 l/m 0 min 0 min 0 W/m 12,9 km/h (3 Bft) 100,00 %
20.03.2022 00:48 5,7 C 5,0 C 1,1 C 68 % 1033,3 hPa 0,0 l/m 0 min 0 min 0 W/m 12,9 km/h (3 Bft) 97,14 %
20.03.2022 00:50 5,7 C 5,0 C 1,1 C 67 % 1033,3 hPa 0,0 l/m 0 min 0 min 0 W/m 9,7 km/h (2 Bft) 98,28 %
20.03.2022 00:52 5,7 C 5,0 C 1,1 C 67 % 1033,2 hPa 0,0 l/m 0 min 0 min 0 W/m 12,9 km/h (3 Bft) 100,00 %
20.03.2022 00:54 5,7 C 5,0 C 1,1 C 67 % 1033,2 hPa 0,0 l/m 0 min 0 min 0 W/m 9,7 km/h (2 Bft) 100,00 %
20.03.2022 00:56 5,7 C 5,0 C 1,1 C 67 % 1033,2 hPa 0,0 l/m 0 min 0 min 0 W/m 6,4 km/h (2 Bft) 100,00 %
20.03.2022 00:58 5,7 C 4,4 C 1,1 C 67 % 1033,1 hPa 0,0 l/m 0 min 0 min 0 W/m 9,7 km/h (2 Bft) 100,00 %
20.03.2022 01:00 5,7 C 4,4 C 1,1 C 67 % 1033,2 hPa 0,0 l/m 0 min 0 min 0 W/m 6,4 km/h (2 Bft) 97,87 %
20.03.2022 01:02 5,6 C 4,4 C 1,1 C 67 % 1033,1 hPa 0,0 l/m 0 min 0 min 0 W/m 6,4 km/h (2 Bft) 97,87 %
20.03.2022 01:04 5,6 C 4,4 C 0,6 C 68 % 1033,0 hPa 0,0 l/m 0 min 0 min 0 W/m 6,4 km/h (2 Bft) 100,00 %
20.03.2022 01:06 5,5 C 4,4 C 0,6 C 68 % 1033,0 hPa 0,0 l/m 0 min 0 min 0 W/m 6,4 km/h (2 Bft) 100,00 %
20.03.2022 01:08 5,4 C 3,9 C 0,6 C 68 % 1033,0 hPa 0,0 l/m 0 min 0 min 0 W/m 3,2 km/h (1 Bft) 100,00 %
20.03.2022 01:10 5,3 C 3,9 C 0,6 C 68 % 1032,9 hPa 0,0 l/m 0 min 0 min 0 W/m 6,4 km/h (2 Bft) 100,00 %
20.03.2022 01:12 5,3 C 3,9 C 0,6 C 69 % 1032,9 hPa 0,0 l/m 0 min 0 min 0 W/m 12,9 km/h (3 Bft) 97,83 %
20.03.2022 01:14 5,2 C 3,9 C 0,6 C 69 % 1032,9 hPa 0,0 l/m 0 min 0 min 0 W/m 9,7 km/h (2 Bft) 100,00 %
20.03.2022 01:16 5,2 C 3,9 C 0,6 C 70 % 1032,8 hPa 0,0 l/m 0 min 0 min 0 W/m 12,9 km/h (3 Bft) 100,00 %
20.03.2022 01:18 5,1 C 3,9 C 0,6 C 70 % 1032,8 hPa 0,0 l/m 0 min 0 min 0 W/m 9,7 km/h (2 Bft) 97,87 %
20.03.2022 01:20 5,1 C 3,9 C 0,6 C 70 % 1032,8 hPa 0,0 l/m 0 min 0 min 0 W/m 9,7 km/h (2 Bft) 97,87 %
20.03.2022 01:22 5,0 C 3,9 C 0,6 C 70 % 1032,8 hPa 0,0 l/m 0 min 0 min 0 W/m 6,4 km/h (2 Bft) 95,65 %
20.03.2022 01:24 5,0 C 3,9 C 0,6 C 71 % 1032,7 hPa 0,0 l/m 0 min 0 min 0 W/m 9,7 km/h (2 Bft) 93,62 %
20.03.2022 01:26 4,9 C 3,9 C 0,6 C 71 % 1032,7 hPa 0,0 l/m 0 min 0 min 0 W/m 6,4 km/h (2 Bft) 93,62 %
20.03.2022 01:28 4,9 C 3,9 C 0,0 C 71 % 1032,7 hPa 0,0 l/m 0 min 0 min 0 W/m 6,4 km/h (2 Bft) 95,74 %
20.03.2022 01:30 4,8 C 3,9 C 0,0 C 71 % 1032,7 hPa 0,0 l/m 0 min 0 min 0 W/m 12,9 km/h (3 Bft) 95,74 %
20.03.2022 01:32 4,8 C 3,9 C 0,0 C 72 % 1032,6 hPa 0,0 l/m 0 min 0 min 0 W/m 6,4 km/h (2 Bft) 95,74 %
20.03.2022 01:34 4,7 C 3,9 C 0,0 C 72 % 1032,6 hPa 0,0 l/m 0 min 0 min 0 W/m 9,7 km/h (2 Bft) 93,48 %
20.03.2022 01:36 4,7 C 3,9 C 0,0 C 72 % 1032,5 hPa 0,0 l/m 0 min 0 min 0 W/m 9,7 km/h (2 Bft) 95,74 %
20.03.2022 01:38 4,7 C 3,9 C 0,0 C 72 % 1032,5 hPa 0,0 l/m 0 min 0 min 0 W/m 6,4 km/h (2 Bft) 95,74 %
20.03.2022 01:40 4,7 C 3,9 C 0,0 C 72 % 1032,5 hPa 0,0 l/m 0 min 0 min 0 W/m 9,7 km/h (2 Bft) 93,62 %
20.03.2022 01:42 4,7 C 3,9 C 0,0 C 72 % 1032,5 hPa 0,0 l/m 0 min 0 min 0 W/m 12,9 km/h (3 Bft) 93,62 %
20.03.2022 01:44 4,7 C 3,9 C 0,0 C 72 % 1032,4 hPa 0,0 l/m 0 min 0 min 0 W/m 9,7 km/h (2 Bft) 95,74 %
20.03.2022 01:46 4,6 C 3,9 C 0,0 C 72 % 1032,4 hPa 0,0 l/m 0 min 0 min 0 W/m 9,7 km/h (2 Bft) 93,48 %
20.03.2022 01:48 4,6 C 3,9 C 0,0 C 72 % 1032,3 hPa 0,0 l/m 0 min 0 min 0 W/m 9,7 km/h (2 Bft) 97,87 %
20.03.2022 01:50 4,6 C 3,9 C 0,0 C 72 % 1032,3 hPa 0,0 l/m 0 min 0 min 0 W/m 6,4 km/h (2 Bft) 97,87 %
20.03.2022 01:52 4,6 C 3,3 C 0,0 C 73 % 1032,3 hPa 0,0 l/m 0 min 0 min 0 W/m 6,4 km/h (2 Bft) 97,87 %
20.03.2022 01:54 4,6 C 3,3 C 0,0 C 73 % 1032,3 hPa 0,0 l/m 0 min 0 min 0 W/m 6,4 km/h (2 Bft) 97,87 %
20.03.2022 01:56 4,6 C 3,3 C 0,0 C 73 % 1032,3 hPa 0,0 l/m 0 min 0 min 0 W/m 9,7 km/h (2 Bft) 97,87 %
20.03.2022 01:58 4,6 C 3,3 C 0,0 C 73 % 1032,2 hPa 0,0 l/m 0 min 0 min 0 W/m 6,4 km/h (2 Bft) 93,48 %
20.03.2022 02:00 4,5 C 3,3 C 0,0 C 73 % 1032,1 hPa 0,0 l/m 0 min 0 min 0 W/m 9,7 km/h (2 Bft) 97,87 %
20.03.2022 02:02 4,5 C 3,3 C 0,0 C 73 % 1032,2 hPa 0,0 l/m 0 min 0 min 0 W/m 9,7 km/h (2 Bft) 52,27 %
20.03.2022 02:04 4,4 C 3,3 C 0,0 C 73 % 1032,1 hPa 0,0 l/m 0 min 0 min 0 W/m 12,9 km/h (3 Bft) 92,68 %
20.03.2022 02:06 4,4 C 3,3 C 0,0 C 73 % 1032,1 hPa 0,0 l/m 0 min 0 min 0 W/m 16,1 km/h (3 Bft) 95,74 %
20.03.2022 02:08 4,4 C 3,3 C 0,0 C 73 % 1032,0 hPa 0,0 l/m 0 min 0 min 0 W/m 9,7 km/h (2 Bft) 95,74 %
20.03.2022 02:10 4,3 C 3,3 C 0,0 C 73 % 1031,9 hPa 0,0 l/m 0 min 0 min 0 W/m 12,9 km/h (3 Bft) 97,83 %
20.03.2022 02:12 4,3 C 3,3 C 0,0 C 73 % 1031,9 hPa 0,0 l/m 0 min 0 min 0 W/m 16,1 km/h (3 Bft) 95,74 %
20.03.2022 02:14 4,3 C 3,3 C 0,0 C 73 % 1031,9 hPa 0,0 l/m 0 min 0 min 0 W/m 12,9 km/h (3 Bft) 95,74 %
20.03.2022 02:16 4,3 C 3,3 C 0,0 C 73 % 1031,9 hPa 0,0 l/m 0 min 0 min 0 W/m 9,7 km/h (2 Bft) 93,62 %
20.03.2022 02:18 4,3 C 3,3 C 0,0 C 73 % 1031,9 hPa 0,0 l/m 0 min 0 min 0 W/m 9,7 km/h (2 Bft) 95,74 %
20.03.2022 02:20 4,3 C 3,3 C 0,0 C 73 % 1031,9 hPa 0,0 l/m 0 min 0 min 0 W/m 9,7 km/h (2 Bft) 97,87 %
20.03.2022 02:22 4,3 C 3,3 C 0,0 C 73 % 1031,9 hPa 0,0 l/m 0 min 0 min 0 W/m 12,9 km/h (3 Bft) 95,65 %
20.03.2022 02:24 4,3 C 3,3 C 0,0 C 73 % 1031,9 hPa 0,0 l/m 0 min 0 min 0 W/m 6,4 km/h (2 Bft) 97,87 %
20.03.2022 02:26 4,3 C 3,3 C 0,0 C 73 % 1031,8 hPa 0,0 l/m 0 min 0 min 0 W/m 9,7 km/h (2 Bft) 97,87 %
20.03.2022 02:28 4,3 C 3,3 C 0,0 C 73 % 1031,8 hPa 0,0 l/m 0 min 0 min 0 W/m 9,7 km/h (2 Bft) 95,74 %
20.03.2022 02:30 4,3 C 3,3 C 0,0 C 73 % 1031,8 hPa 0,0 l/m 0 min 0 min 0 W/m 9,7 km/h (2 Bft) 95,74 %
20.03.2022 02:32 4,3 C 3,3 C 0,0 C 73 % 1031,8 hPa 0,0 l/m 0 min 0 min 0 W/m 9,7 km/h (2 Bft) 97,87 %
20.03.2022 02:34 4,3 C 3,3 C 0,0 C 73 % 1031,7 hPa 0,0 l/m 0 min 0 min 0 W/m 16,1 km/h (3 Bft) 97,83 %
20.03.2022 02:36 4,3 C 3,3 C 0,0 C 73 % 1031,7 hPa 0,0 l/m 0 min 0 min 0 W/m 12,9 km/h (3 Bft) 100,00 %
20.03.2022 02:38 4,3 C 3,3 C 0,0 C 73 % 1031,6 hPa 0,0 l/m 0 min 0 min 0 W/m 9,7 km/h (2 Bft) 100,00 %
20.03.2022 02:40 4,3 C 3,3 C 0,0 C 73 % 1031,6 hPa 0,0 l/m 0 min 0 min 0 W/m 9,7 km/h (2 Bft) 100,00 %
20.03.2022 02:42 4,3 C 3,3 C 0,0 C 73 % 1031,5 hPa 0,0 l/m 0 min 0 min 0 W/m 6,4 km/h (2 Bft) 95,74 %
20.03.2022 02:44 4,3 C 3,3 C 0,0 C 73 % 1031,4 hPa 0,0 l/m 0 min 0 min 0 W/m 16,1 km/h (3 Bft) 100,00 %
20.03.2022 02:46 4,3 C 3,3 C 0,0 C 73 % 1031,4 hPa 0,0 l/m 0 min 0 min 0 W/m 12,9 km/h (3 Bft) 100,00 %
20.03.2022 02:48 4,3 C 3,3 C 0,0 C 73 % 1031,4 hPa 0,0 l/m 0 min 0 min 0 W/m 12,9 km/h (3 Bft) 100,00 %
20.03.2022 02:50 4,3 C 3,3 C 0,0 C 73 % 1031,4 hPa 0,0 l/m 0 min 0 min 0 W/m 9,7 km/h (2 Bft) 100,00 %
20.03.2022 02:52 4,3 C 3,3 C 0,0 C 73 % 1031,3 hPa 0,0 l/m 0 min 0 min 0 W/m 16,1 km/h (3 Bft) 100,00 %
20.03.2022 02:54 4,2 C 3,3 C 0,0 C 74 % 1031,4 hPa 0,0 l/m 0 min 0 min 0 W/m 12,9 km/h (3 Bft) 100,00 %
20.03.2022 02:56 4,2 C 3,3 C 0,0 C 73 % 1031,4 hPa 0,0 l/m 0 min 0 min 0 W/m 6,4 km/h (2 Bft) 100,00 %
20.03.2022 02:58 4,2 C 3,3 C 0,0 C 73 % 1031,4 hPa 0,0 l/m 0 min 0 min 0 W/m 6,4 km/h (2 Bft) 100,00 %
20.03.2022 03:00 4,2 C 3,3 C 0,0 C 73 % 1031,3 hPa 0,0 l/m 0 min 0 min 0 W/m 9,7 km/h (2 Bft) 46,15 %
20.03.2022 03:02 4,2 C 3,3 C 0,0 C 74 % 1031,3 hPa 0,0 l/m 0 min 0 min 0 W/m 12,9 km/h (3 Bft) 100,00 %
20.03.2022 03:04 4,2 C 3,3 C 0,0 C 73 % 1031,2 hPa 0,0 l/m 0 min 0 min 0 W/m 12,9 km/h (3 Bft) 97,87 %
20.03.2022 03:06 4,2 C 3,3 C 0,0 C 73 % 1031,2 hPa 0,0 l/m 0 min 0 min 0 W/m 9,7 km/h (2 Bft) 100,00 %
20.03.2022 03:08 4,2 C 3,3 C 0,0 C 73 % 1031,2 hPa 0,0 l/m 0 min 0 min 0 W/m 12,9 km/h (3 Bft) 100,00 %
20.03.2022 03:10 4,2 C 3,3 C 0,0 C 73 % 1031,2 hPa 0,0 l/m 0 min 0 min 0 W/m 9,7 km/h (2 Bft) 100,00 %
20.03.2022 03:12 4,2 C 3,3 C 0,0 C 73 % 1031,2 hPa 0,0 l/m 0 min 0 min 0 W/m 9,7 km/h (2 Bft) 95,74 %
20.03.2022 03:14 4,1 C 3,3 C 0,0 C 73 % 1031,2 hPa 0,0 l/m 0 min 0 min 0 W/m 9,7 km/h (2 Bft) 97,87 %
20.03.2022 03:16 4,1 C 3,3 C -0,6 C 73 % 1031,1 hPa 0,0 l/m 0 min 0 min 0 W/m 6,4 km/h (2 Bft) 97,87 %
20.03.2022 03:18 4,1 C 3,3 C -0,6 C 73 % 1031,1 hPa 0,0 l/m 0 min 0 min 0 W/m 12,9 km/h (3 Bft) 97,87 %
20.03.2022 03:20 4,1 C 3,3 C -0,6 C 73 % 1031,0 hPa 0,0 l/m 0 min 0 min 0 W/m 12,9 km/h (3 Bft) 95,65 %
20.03.2022 03:22 4,1 C 2,8 C -0,6 C 73 % 1031,0 hPa 0,0 l/m 0 min 0 min 0 W/m 12,9 km/h (3 Bft) 97,87 %
20.03.2022 03:24 4,0 C 2,8 C -0,6 C 73 % 1031,0 hPa 0,0 l/m 0 min 0 min 0 W/m 9,7 km/h (2 Bft) 97,87 %
20.03.2022 03:26 4,0 C 2,8 C -0,6 C 73 % 1031,0 hPa 0,0 l/m 0 min 0 min 0 W/m 9,7 km/h (2 Bft) 95,74 %
20.03.2022 03:28 3,9 C 2,8 C -0,6 C 73 % 1030,9 hPa 0,0 l/m 0 min 0 min 0 W/m 9,7 km/h (2 Bft) 97,87 %
20.03.2022 03:30 3,9 C 2,8 C -0,6 C 73 % 1030,8 hPa 0,0 l/m 0 min 0 min 0 W/m 9,7 km/h (2 Bft) 93,62 %
20.03.2022 03:32 3,9 C 2,8 C -0,6 C 73 % 1030,8 hPa 0,0 l/m 0 min 0 min 0 W/m 12,9 km/h (3 Bft) 97,83 %
20.03.2022 03:34 3,9 C 2,8 C -0,6 C 73 % 1030,8 hPa 0,0 l/m 0 min 0 min 0 W/m 6,4 km/h (2 Bft) 97,87 %
20.03.2022 03:36 3,9 C 2,8 C -0,6 C 73 % 1030,7 hPa 0,0 l/m 0 min 0 min 0 W/m 9,7 km/h (2 Bft) 100,00 %
20.03.2022 03:38 3,8 C 2,8 C -0,6 C 73 % 1030,7 hPa 0,0 l/m 0 min 0 min 0 W/m 12,9 km/h (3 Bft) 100,00 %
20.03.2022 03:40 3,8 C 2,8 C -0,6 C 73 % 1030,7 hPa 0,0 l/m 0 min 0 min 0 W/m 9,7 km/h (2 Bft) 100,00 %
20.03.2022 03:42 3,8 C 2,8 C -0,6 C 73 % 1030,6 hPa 0,0 l/m 0 min 0 min 0 W/m 6,4 km/h (2 Bft) 100,00 %
20.03.2022 03:44 3,8 C 2,8 C -0,6 C 73 % 1030,7 hPa 0,0 l/m 0 min 0 min 0 W/m 6,4 km/h (2 Bft) 100,00 %
20.03.2022 03:46 3,8 C 2,8 C -0,6 C 73 % 1030,7 hPa 0,0 l/m 0 min 0 min 0 W/m 6,4 km/h (2 Bft) 95,74 %
20.03.2022 03:48 3,8 C 2,8 C -0,6 C 74 % 1030,6 hPa 0,0 l/m 0 min 0 min 0 W/m 6,4 km/h (2 Bft) 100,00 %
20.03.2022 03:50 3,8 C 3,3 C -0,6 C 73 % 1030,6 hPa 0,0 l/m 0 min 0 min 0 W/m 12,9 km/h (3 Bft) 100,00 %
20.03.2022 03:52 3,8 C 3,3 C -0,6 C 73 % 1030,5 hPa 0,0 l/m 0 min 0 min 0 W/m 6,4 km/h (2 Bft) 100,00 %
20.03.2022 03:54 3,8 C 3,3 C -0,6 C 73 % 1030,5 hPa 0,0 l/m 0 min 0 min 0 W/m 9,7 km/h (2 Bft) 100,00 %
20.03.2022 03:56 3,8 C 3,3 C 0,0 C 73 % 1030,5 hPa 0,0 l/m 0 min 0 min 0 W/m 12,9 km/h (3 Bft) 54,35 %
20.03.2022 03:58 3,9 C 3,3 C 0,0 C 73 % 1030,5 hPa 0,0 l/m 0 min 0 min 0 W/m 9,7 km/h (2 Bft) 100,00 %
20.03.2022 04:00 3,9 C 3,3 C 0,0 C 73 % 1030,5 hPa 0,0 l/m 0 min 0 min 0 W/m 9,7 km/h (2 Bft) 97,87 %
20.03.2022 04:02 3,9 C 3,3 C 0,0 C 73 % 1030,5 hPa 0,0 l/m 0 min 0 min 0 W/m 6,4 km/h (2 Bft) 100,00 %
20.03.2022 04:04 3,9 C 3,3 C 0,0 C 73 % 1030,5 hPa 0,0 l/m 0 min 0 min 0 W/m 6,4 km/h (2 Bft) 100,00 %
20.03.2022 04:06 4,0 C 3,3 C 0,0 C 72 % 1030,5 hPa 0,0 l/m 0 min 0 min 0 W/m 6,4 km/h (2 Bft) 100,00 %
20.03.2022 04:08 4,0 C 3,3 C 0,0 C 72 % 1030,5 hPa 0,0 l/m 0 min 0 min 0 W/m 9,7 km/h (2 Bft) 100,00 %
20.03.2022 04:10 4,0 C 3,3 C 0,0 C 72 % 1030,5 hPa 0,0 l/m 0 min 0 min 0 W/m 9,7 km/h (2 Bft) 97,87 %
20.03.2022 04:12 4,1 C 3,3 C 0,0 C 72 % 1030,5 hPa 0,0 l/m 0 min 0 min 0 W/m 6,4 km/h (2 Bft) 97,87 %
20.03.2022 04:14 4,1 C 3,3 C 0,0 C 72 % 1030,4 hPa 0,0 l/m 0 min 0 min 0 W/m 9,7 km/h (2 Bft) 97,87 %
20.03.2022 04:16 4,1 C 3,3 C 0,0 C 72 % 1030,4 hPa 0,0 l/m 0 min 0 min 0 W/m 12,9 km/h (3 Bft) 97,87 %
20.03.2022 04:18 4,1 C 3,3 C 0,0 C 72 % 1030,4 hPa 0,0 l/m 0 min 0 min 0 W/m 16,1 km/h (3 Bft) 95,74 %
20.03.2022 04:20 4,1 C 3,3 C 0,0 C 72 % 1030,3 hPa 0,0 l/m 0 min 0 min 0 W/m 9,7 km/h (2 Bft) 97,83 %
20.03.2022 04:22 4,1 C 3,3 C 0,0 C 72 % 1030,3 hPa 0,0 l/m 0 min 0 min 0 W/m 6,4 km/h (2 Bft) 97,87 %
20.03.2022 04:24 4,1 C 3,3 C 0,0 C 72 % 1030,2 hPa 0,0 l/m 0 min 0 min 0 W/m 9,7 km/h (2 Bft) 97,87 %
20.03.2022 04:26 4,2 C 3,9 C 0,0 C 72 % 1030,2 hPa 0,0 l/m 0 min 0 min 0 W/m 9,7 km/h (2 Bft) 97,87 %
20.03.2022 04:28 4,2 C 3,9 C 0,0 C 71 % 1030,2 hPa 0,0 l/m 0 min 0 min 0 W/m 6,4 km/h (2 Bft) 97,87 %
20.03.2022 04:30 4,2 C 3,9 C 0,0 C 71 % 1030,2 hPa 0,0 l/m 0 min 0 min 0 W/m 9,7 km/h (2 Bft) 97,14 %
20.03.2022 04:32 4,2 C 3,9 C 0,0 C 71 % 1030,1 hPa 0,0 l/m 0 min 0 min 0 W/m 12,9 km/h (3 Bft) 95,74 %
20.03.2022 04:34 4,2 C 3,9 C 0,0 C 71 % 1030,1 hPa 0,0 l/m 0 min 0 min 0 W/m 9,7 km/h (2 Bft) 95,74 %
20.03.2022 04:36 4,3 C 3,9 C 0,0 C 70 % 1030,1 hPa 0,0 l/m 0 min 0 min 0 W/m 9,7 km/h (2 Bft) 95,65 %
20.03.2022 04:38 4,3 C 3,9 C 0,0 C 70 % 1030,1 hPa 0,0 l/m 0 min 0 min 0 W/m 9,7 km/h (2 Bft) 93,62 %
20.03.2022 04:40 4,3 C 3,9 C 0,0 C 70 % 1030,0 hPa 0,0 l/m 0 min 0 min 0 W/m 6,4 km/h (2 Bft) 95,74 %
20.03.2022 04:42 4,3 C 3,9 C 0,0 C 70 % 1030,1 hPa 0,0 l/m 0 min 0 min 0 W/m 6,4 km/h (2 Bft) 95,74 %
20.03.2022 04:44 4,3 C 3,9 C 0,0 C 70 % 1030,1 hPa 0,0 l/m 0 min 0 min 0 W/m 16,1 km/h (3 Bft) 95,74 %
20.03.2022 04:46 4,3 C 3,9 C 0,0 C 70 % 1030,0 hPa 0,0 l/m 0 min 0 min 0 W/m 9,7 km/h (2 Bft) 95,65 %
20.03.2022 04:48 4,3 C 3,3 C 0,0 C 71 % 1030,1 hPa 0,0 l/m 0 min 0 min 0 W/m 12,9 km/h (3 Bft) 95,74 %
20.03.2022 04:50 4,3 C 3,3 C 0,0 C 71 % 1030,1 hPa 0,0 l/m 0 min 0 min 0 W/m 9,7 km/h (2 Bft) 95,74 %
20.03.2022 04:52 4,3 C 3,3 C 0,0 C 70 % 1030,0 hPa 0,0 l/m 0 min 0 min 0 W/m 12,9 km/h (3 Bft) 93,62 %
20.03.2022 04:54 4,3 C 3,3 C 0,0 C 70 % 1029,9 hPa 0,0 l/m 0 min 0 min 0 W/m 9,7 km/h (2 Bft) 95,74 %
20.03.2022 04:56 4,2 C 3,3 C 0,0 C 70 % 1029,9 hPa 0,0 l/m 0 min 0 min 0 W/m 6,4 km/h (2 Bft) 93,62 %
20.03.2022 04:58 4,2 C 3,3 C 0,0 C 70 % 1029,9 hPa 0,0 l/m 0 min 0 min 0 W/m 9,7 km/h (2 Bft) 94,34 %
20.03.2022 05:00 4,2 C 3,3 C 0,0 C 70 % 1029,9 hPa 0,0 l/m 0 min 0 min 0 W/m 6,4 km/h (2 Bft) 95,92 %
20.03.2022 05:02 4,2 C 3,3 C 0,0 C 70 % 1029,8 hPa 0,0 l/m 0 min 0 min 0 W/m 12,9 km/h (3 Bft) 96,00 %
20.03.2022 05:04 4,2 C 3,3 C 0,0 C 70 % 1029,8 hPa 0,0 l/m 0 min 0 min 0 W/m 6,4 km/h (2 Bft) 94,29 %
20.03.2022 05:06 4,1 C 3,3 C 0,0 C 71 % 1029,7 hPa 0,0 l/m 0 min 0 min 0 W/m 6,4 km/h (2 Bft) 95,74 %
20.03.2022 05:08 4,1 C 3,3 C 0,0 C 71 % 1029,7 hPa 0,0 l/m 0 min 0 min 0 W/m 3,2 km/h (1 Bft) 97,87 %
20.03.2022 05:10 4,1 C 3,3 C 0,0 C 71 % 1029,7 hPa 0,0 l/m 0 min 0 min 0 W/m 6,4 km/h (2 Bft) 95,65 %
20.03.2022 05:12 4,1 C 3,3 C -0,6 C 71 % 1029,6 hPa 0,0 l/m 0 min 0 min 0 W/m 6,4 km/h (2 Bft) 94,34 %
20.03.2022 05:14 4,1 C 3,3 C 0,0 C 71 % 1029,5 hPa 0,0 l/m 0 min 0 min 0 W/m 9,7 km/h (2 Bft) 96,00 %
20.03.2022 05:16 4,1 C 3,3 C 0,0 C 71 % 1029,5 hPa 0,0 l/m 0 min 0 min 0 W/m 9,7 km/h (2 Bft) 96,00 %
20.03.2022 05:18 4,1 C 3,3 C -0,6 C 71 % 1029,5 hPa 0,0 l/m 0 min 0 min 0 W/m 6,4 km/h (2 Bft) 94,29 %
20.03.2022 05:20 4,1 C 3,3 C 0,0 C 71 % 1029,5 hPa 0,0 l/m 0 min 0 min 0 W/m 9,7 km/h (2 Bft) 95,74 %
20.03.2022 05:22 4,0 C 3,3 C -0,6 C 71 % 1029,4 hPa 0,0 l/m 0 min 0 min 0 W/m 6,4 km/h (2 Bft) 95,65 %
20.03.2022 05:24 4,0 C 3,3 C -0,6 C 71 % 1029,3 hPa 0,0 l/m 0 min 0 min 0 W/m 6,4 km/h (2 Bft) 100,00 %
20.03.2022 05:26 3,9 C 3,3 C -0,6 C 70 % 1029,3 hPa 0,0 l/m 0 min 0 min 0 W/m 9,7 km/h (2 Bft) 100,00 %
20.03.2022 05:28 3,9 C 3,3 C -0,6 C 70 % 1029,4 hPa 0,0 l/m 0 min 0 min 0 W/m 6,4 km/h (2 Bft) 100,00 %
20.03.2022 05:30 3,9 C 2,8 C -0,6 C 70 % 1029,3 hPa 0,0 l/m 0 min 0 min 0 W/m 6,4 km/h (2 Bft) 100,00 %
20.03.2022 05:32 3,9 C 2,8 C -0,6 C 70 % 1029,4 hPa 0,0 l/m 0 min 0 min 0 W/m 9,7 km/h (2 Bft) 100,00 %
20.03.2022 05:34 3,9 C 2,8 C -0,6 C 70 % 1029,3 hPa 0,0 l/m 0 min 0 min 0 W/m 6,4 km/h (2 Bft) 100,00 %
20.03.2022 05:36 3,9 C 2,8 C -0,6 C 70 % 1029,3 hPa 0,0 l/m 0 min 0 min 0 W/m 6,4 km/h (2 Bft) 97,87 %
20.03.2022 05:38 3,9 C 2,8 C -0,6 C 70 % 1029,3 hPa 0,0 l/m 0 min 0 min 0 W/m 9,7 km/h (2 Bft) 100,00 %
20.03.2022 05:40 3,8 C 2,8 C -0,6 C 70 % 1029,3 hPa 0,0 l/m 0 min 0 min 0 W/m 9,7 km/h (2 Bft) 100,00 %
20.03.2022 05:42 3,8 C 2,8 C -0,6 C 70 % 1029,4 hPa 0,0 l/m 0 min 0 min 0 W/m 6,4 km/h (2 Bft) 100,00 %
20.03.2022 05:44 3,8 C 2,8 C -0,6 C 70 % 1029,4 hPa 0,0 l/m 0 min 0 min 0 W/m 6,4 km/h (2 Bft) 100,00 %
20.03.2022 05:46 3,8 C 2,8 C -1,1 C 71 % 1029,4 hPa 0,0 l/m 0 min 0 min 0 W/m 6,4 km/h (2 Bft) 97,83 %
20.03.2022 05:48 3,7 C 2,2 C -1,1 C 71 % 1029,3 hPa 0,0 l/m 0 min 0 min 0 W/m 6,4 km/h (2 Bft) 100,00 %
20.03.2022 05:50 3,6 C 2,2 C -1,1 C 71 % 1029,3 hPa 0,0 l/m 0 min 0 min 0 W/m 9,7 km/h (2 Bft) 100,00 %
20.03.2022 05:52 3,6 C 2,2 C -1,1 C 71 % 1029,2 hPa 0,0 l/m 0 min 0 min 0 W/m 9,7 km/h (2 Bft) 97,87 %
20.03.2022 05:54 3,5 C 2,2 C -1,1 C 71 % 1029,2 hPa 0,0 l/m 0 min 0 min 0 W/m 9,7 km/h (2 Bft) 100,00 %
20.03.2022 05:56 3,5 C 2,2 C -1,1 C 71 % 1029,2 hPa 0,0 l/m 0 min 0 min 0 W/m 6,4 km/h (2 Bft) 100,00 %
20.03.2022 05:58 3,4 C 2,2 C -1,1 C 71 % 1029,1 hPa 0,0 l/m 0 min 0 min 0 W/m 9,7 km/h (2 Bft) 100,00 %
20.03.2022 06:00 3,4 C 2,2 C -1,1 C 72 % 1029,0 hPa 0,0 l/m 0 min 0 min 0 W/m 9,7 km/h (2 Bft) 100,00 %
20.03.2022 06:02 3,4 C 2,2 C -1,1 C 71 % 1029,0 hPa 0,0 l/m 0 min 0 min 0 W/m 9,7 km/h (2 Bft) 97,87 %
20.03.2022 06:04 3,3 C 2,2 C -1,1 C 71 % 1028,9 hPa 0,0 l/m 0 min 0 min 0 W/m 16,1 km/h (3 Bft) 100,00 %
20.03.2022 06:08 3,3 C 2,2 C -1,1 C 72 % 1028,9 hPa 0,0 l/m 0 min 0 min 0 W/m 9,7 km/h (2 Bft) 100,00 %
20.03.2022 06:10 3,3 C 2,2 C -1,1 C 72 % 1028,9 hPa 0,0 l/m 0 min 0 min 0 W/m 9,7 km/h (2 Bft) 100,00 %
20.03.2022 06:12 3,3 C 2,2 C -1,1 C 72 % 1028,9 hPa 0,0 l/m 0 min 0 min 0 W/m 6,4 km/h (2 Bft) 100,00 %
20.03.2022 06:14 3,2 C 2,2 C -1,1 C 72 % 1028,9 hPa 0,0 l/m 0 min 0 min 0 W/m 9,7 km/h (2 Bft) 100,00 %
20.03.2022 06:16 3,2 C 2,2 C -1,1 C 72 % 1028,9 hPa 0,0 l/m 0 min 0 min 0 W/m 9,7 km/h (2 Bft) 97,87 %
20.03.2022 06:18 3,2 C 2,2 C -1,1 C 72 % 1028,9 hPa 0,0 l/m 0 min 0 min 0 W/m 9,7 km/h (2 Bft) 95,74 %
20.03.2022 06:20 3,2 C 2,2 C -1,1 C 72 % 1028,9 hPa 0,0 l/m 0 min 0 min 0 W/m 6,4 km/h (2 Bft) 97,87 %
20.03.2022 06:22 3,1 C 2,2 C -1,1 C 72 % 1028,9 hPa 0,0 l/m 0 min 0 min 0 W/m 6,4 km/h (2 Bft) 100,00 %
20.03.2022 06:24 3,1 C 2,2 C -1,1 C 72 % 1028,8 hPa 0,0 l/m 0 min 0 min 0 W/m 9,7 km/h (2 Bft) 100,00 %
20.03.2022 06:26 3,1 C 2,2 C -1,1 C 72 % 1028,8 hPa 0,0 l/m 0 min 0 min 0 W/m 9,7 km/h (2 Bft) 97,87 %
20.03.2022 06:28 3,1 C 2,2 C -1,1 C 72 % 1028,8 hPa 0,0 l/m 0 min 0 min 0 W/m 9,7 km/h (2 Bft) 97,87 %
20.03.2022 06:30 3,1 C 2,2 C -1,1 C 72 % 1028,8 hPa 0,0 l/m 0 min 0 min 0 W/m 9,7 km/h (2 Bft) 100,00 %
20.03.2022 06:32 3,0 C 2,2 C -1,1 C 72 % 1028,8 hPa 0,0 l/m 0 min 0 min 0 W/m 9,7 km/h (2 Bft) 97,87 %
20.03.2022 06:34 3,0 C 2,2 C -1,1 C 72 % 1028,8 hPa 0,0 l/m 0 min 0 min 0 W/m 9,7 km/h (2 Bft) 97,83 %
20.03.2022 06:36 3,0 C 2,2 C -1,1 C 72 % 1028,8 hPa 0,0 l/m 0 min 0 min 0 W/m 9,7 km/h (2 Bft) 97,87 %
20.03.2022 06:38 3,0 C 2,2 C -1,7 C 72 % 1028,9 hPa 0,0 l/m 0 min 0 min 0 W/m 9,7 km/h (2 Bft) 97,87 %
20.03.2022 06:40 2,9 C 2,2 C -1,7 C 72 % 1028,9 hPa 0,0 l/m 0 min 0 min 0 W/m 6,4 km/h (2 Bft) 95,74 %
20.03.2022 06:42 2,9 C 1,7 C -1,7 C 72 % 1028,8 hPa 0,0 l/m 0 min 0 min 3 W/m 9,7 km/h (2 Bft) 95,74 %
20.03.2022 06:44 2,9 C 1,7 C -1,7 C 73 % 1028,9 hPa 0,0 l/m 0 min 0 min 5 W/m 9,7 km/h (2 Bft) 95,65 %
20.03.2022 06:46 2,9 C 1,7 C -1,7 C 73 % 1028,9 hPa 0,0 l/m 0 min 0 min 6 W/m 6,4 km/h (2 Bft) 95,74 %
20.03.2022 06:48 2,9 C 1,7 C -1,7 C 72 % 1028,8 hPa 0,0 l/m 0 min 0 min 7 W/m 6,4 km/h (2 Bft) 93,62 %
20.03.2022 06:50 2,8 C 2,2 C -1,7 C 72 % 1028,8 hPa 0,0 l/m 0 min 0 min 8 W/m 9,7 km/h (2 Bft) 93,62 %
20.03.2022 06:52 2,8 C 2,2 C -1,7 C 72 % 1028,8 hPa 0,0 l/m 0 min 0 min 9 W/m 12,9 km/h (3 Bft) 93,62 %
20.03.2022 06:54 2,8 C 2,2 C -1,1 C 72 % 1028,8 hPa 0,0 l/m 0 min 0 min 11 W/m 9,7 km/h (2 Bft) 95,74 %
20.03.2022 06:56 2,8 C 2,2 C -1,1 C 72 % 1028,8 hPa 0,0 l/m 0 min 0 min 12 W/m 9,7 km/h (2 Bft) 95,65 %
20.03.2022 06:58 2,8 C 2,2 C -1,1 C 72 % 1028,8 hPa 0,0 l/m 0 min 0 min 15 W/m 6,4 km/h (2 Bft) 95,74 %
20.03.2022 07:00 2,9 C 2,2 C -1,1 C 73 % 1028,8 hPa 0,0 l/m 0 min 0 min 17 W/m 6,4 km/h (2 Bft) 95,74 %
20.03.2022 07:02 2,9 C 2,2 C -1,1 C 73 % 1028,7 hPa 0,0 l/m 0 min 0 min 18 W/m 9,7 km/h (2 Bft) 93,62 %
20.03.2022 07:04 2,9 C 2,2 C -1,1 C 72 % 1028,8 hPa 0,0 l/m 0 min 0 min 18 W/m 6,4 km/h (2 Bft) 93,62 %
20.03.2022 07:06 2,9 C 2,8 C -1,1 C 72 % 1028,9 hPa 0,0 l/m 0 min 0 min 20 W/m 9,7 km/h (2 Bft) 93,62 %
20.03.2022 07:08 3,0 C 2,8 C -1,1 C 72 % 1028,8 hPa 0,0 l/m 0 min 0 min 26 W/m 16,1 km/h (3 Bft) 95,65 %
20.03.2022 07:10 3,0 C 2,8 C -1,1 C 72 % 1028,8 hPa 0,0 l/m 0 min 0 min 29 W/m 9,7 km/h (2 Bft) 97,87 %
20.03.2022 07:12 3,1 C 2,8 C -1,1 C 72 % 1028,8 hPa 0,0 l/m 0 min 0 min 35 W/m 9,7 km/h (2 Bft) 100,00 %
20.03.2022 07:14 3,1 C 2,8 C -0,6 C 72 % 1028,8 hPa 0,0 l/m 0 min 0 min 40 W/m 9,7 km/h (2 Bft) 100,00 %
20.03.2022 07:16 3,1 C 2,8 C -0,6 C 72 % 1028,9 hPa 0,0 l/m 0 min 0 min 45 W/m 9,7 km/h (2 Bft) 100,00 %
20.03.2022 07:18 3,2 C 2,8 C -0,6 C 72 % 1028,9 hPa 0,0 l/m 0 min 0 min 46 W/m 9,7 km/h (2 Bft) 100,00 %
20.03.2022 07:20 3,2 C 2,8 C -0,6 C 72 % 1028,8 hPa 0,0 l/m 0 min 0 min 46 W/m 6,4 km/h (2 Bft) 100,00 %
20.03.2022 07:22 3,2 C 3,3 C -0,6 C 72 % 1028,8 hPa 0,0 l/m 0 min 0 min 48 W/m 9,7 km/h (2 Bft) 100,00 %
20.03.2022 07:24 3,3 C 3,3 C -0,6 C 72 % 1028,9 hPa 0,0 l/m 0 min 0 min 49 W/m 9,7 km/h (2 Bft) 100,00 %
20.03.2022 07:26 3,3 C 3,3 C -0,6 C 72 % 1028,9 hPa 0,0 l/m 0 min 0 min 51 W/m 12,9 km/h (3 Bft) 95,74 %
20.03.2022 07:28 3,4 C 3,3 C -0,6 C 71 % 1028,9 hPa 0,0 l/m 0 min 0 min 51 W/m 9,7 km/h (2 Bft) 100,00 %
20.03.2022 07:30 3,5 C 3,3 C -0,6 C 71 % 1028,9 hPa 0,0 l/m 0 min 0 min 48 W/m 12,9 km/h (3 Bft) 100,00 %
20.03.2022 07:32 3,6 C 3,3 C -0,6 C 71 % 1028,9 hPa 0,0 l/m 0 min 0 min 47 W/m 12,9 km/h (3 Bft) 100,00 %
20.03.2022 07:34 3,6 C 3,3 C 0,0 C 70 % 1028,9 hPa 0,0 l/m 0 min 0 min 47 W/m 9,7 km/h (2 Bft) 100,00 %
20.03.2022 07:36 3,7 C 3,3 C 0,0 C 70 % 1028,9 hPa 0,0 l/m 0 min 0 min 47 W/m 12,9 km/h (3 Bft) 98,31 %
20.03.2022 07:38 3,7 C 3,3 C 0,0 C 70 % 1028,9 hPa 0,0 l/m 0 min 0 min 47 W/m 9,7 km/h (2 Bft) 97,87 %
20.03.2022 07:40 3,7 C 3,9 C 0,0 C 70 % 1028,8 hPa 0,0 l/m 0 min 0 min 56 W/m 9,7 km/h (2 Bft) 97,83 %
20.03.2022 07:42 3,8 C 3,9 C 0,0 C 70 % 1028,8 hPa 0,0 l/m 0 min 0 min 73 W/m 9,7 km/h (2 Bft) 97,87 %
20.03.2022 07:44 3,8 C 3,9 C 0,0 C 70 % 1028,8 hPa 0,0 l/m 0 min 0 min 82 W/m 9,7 km/h (2 Bft) 95,74 %
20.03.2022 07:46 3,9 C 3,9 C 0,0 C 70 % 1028,6 hPa 0,0 l/m 2 min 0 min 85 W/m 9,7 km/h (2 Bft) 97,87 %
20.03.2022 07:48 3,9 C 3,9 C 0,0 C 69 % 1028,5 hPa 0,0 l/m 0 min 0 min 81 W/m 12,9 km/h (3 Bft) 97,87 %
20.03.2022 07:50 3,9 C 3,9 C 0,0 C 69 % 1028,6 hPa 0,0 l/m 0 min 0 min 66 W/m 16,1 km/h (3 Bft) 97,87 %
20.03.2022 07:52 4,0 C 3,9 C 0,0 C 69 % 1028,6 hPa 0,0 l/m 0 min 0 min 53 W/m 16,1 km/h (3 Bft) 97,83 %
20.03.2022 07:54 4,0 C 3,9 C 0,0 C 69 % 1028,6 hPa 0,0 l/m 0 min 0 min 43 W/m 19,3 km/h (3 Bft) 97,87 %
20.03.2022 07:56 4,0 C 3,9 C 0,0 C 68 % 1028,5 hPa 0,0 l/m 0 min 0 min 35 W/m 16,1 km/h (3 Bft) 97,87 %
20.03.2022 07:58 4,0 C 3,3 C 0,0 C 68 % 1028,5 hPa 0,0 l/m 0 min 0 min 32 W/m 9,7 km/h (2 Bft) 97,87 %
20.03.2022 08:00 3,9 C 3,3 C -0,6 C 69 % 1028,5 hPa 0,0 l/m 0 min 0 min 30 W/m 12,9 km/h (3 Bft) 93,62 %
20.03.2022 08:02 3,9 C 3,3 C -0,6 C 68 % 1028,5 hPa 0,0 l/m 0 min 0 min 32 W/m 12,9 km/h (3 Bft) 93,62 %
20.03.2022 08:04 3,9 C 3,3 C -0,6 C 69 % 1028,5 hPa 0,0 l/m 0 min 0 min 37 W/m 12,9 km/h (3 Bft) 97,83 %
20.03.2022 08:06 3,9 C 3,3 C -0,6 C 68 % 1028,5 hPa 0,0 l/m 0 min 0 min 42 W/m 16,1 km/h (3 Bft) 97,87 %
20.03.2022 08:08 3,9 C 3,3 C -0,6 C 68 % 1028,4 hPa 0,0 l/m 0 min 0 min 43 W/m 12,9 km/h (3 Bft) 97,87 %
20.03.2022 08:10 3,9 C 3,3 C 0,0 C 68 % 1028,4 hPa 0,0 l/m 0 min 0 min 47 W/m 16,1 km/h (3 Bft) 97,87 %
20.03.2022 08:12 3,9 C 3,9 C 0,0 C 69 % 1028,3 hPa 0,0 l/m 0 min 0 min 54 W/m 9,7 km/h (2 Bft) 97,87 %
20.03.2022 08:14 3,9 C 3,9 C 0,0 C 69 % 1028,3 hPa 0,0 l/m 0 min 0 min 67 W/m 19,3 km/h (3 Bft) 97,87 %
20.03.2022 08:16 3,9 C 3,9 C 0,0 C 68 % 1028,2 hPa 0,0 l/m 0 min 0 min 80 W/m 9,7 km/h (2 Bft) 97,83 %
20.03.2022 08:18 3,9 C 3,9 C 0,0 C 69 % 1028,2 hPa 0,0 l/m 0 min 0 min 103 W/m 9,7 km/h (2 Bft) 97,87 %
20.03.2022 08:20 4,0 C 4,4 C 0,6 C 69 % 1028,2 hPa 0,0 l/m 0 min 0 min 126 W/m 16,1 km/h (3 Bft) 95,74 %
20.03.2022 08:22 4,1 C 4,4 C 0,6 C 69 % 1028,2 hPa 0,0 l/m 0 min 0 min 128 W/m 12,9 km/h (3 Bft) 95,74 %
20.03.2022 08:24 4,2 C 5,0 C 0,6 C 69 % 1028,2 hPa 0,0 l/m 0 min 0 min 123 W/m 19,3 km/h (3 Bft) 100,00 %
20.03.2022 08:26 4,3 C 5,0 C 0,6 C 68 % 1028,1 hPa 0,0 l/m 0 min 0 min 110 W/m 9,7 km/h (2 Bft) 100,00 %
20.03.2022 08:28 4,4 C 5,0 C 0,6 C 68 % 1028,1 hPa 0,0 l/m 0 min 0 min 99 W/m 16,1 km/h (3 Bft) 100,00 %
20.03.2022 08:30 4,4 C 5,0 C 0,6 C 67 % 1028,0 hPa 0,0 l/m 0 min 0 min 96 W/m 16,1 km/h (3 Bft) 100,00 %
20.03.2022 08:32 4,6 C 5,0 C 0,6 C 67 % 1028,0 hPa 0,0 l/m 0 min 0 min 107 W/m 16,1 km/h (3 Bft) 100,00 %
20.03.2022 08:34 4,6 C 5,0 C 1,1 C 67 % 1027,9 hPa 0,0 l/m 2 min 0 min 150 W/m 16,1 km/h (3 Bft) 97,87 %
20.03.2022 08:36 4,7 C 5,6 C 1,1 C 67 % 1027,8 hPa 0,0 l/m 2 min 0 min 185 W/m 12,9 km/h (3 Bft) 95,74 %
20.03.2022 08:38 4,9 C 5,6 C 1,1 C 67 % 1027,9 hPa 0,0 l/m 2 min 0 min 173 W/m 19,3 km/h (3 Bft) 97,83 %
20.03.2022 08:40 5,0 C 5,6 C 1,1 C 66 % 1027,9 hPa 0,0 l/m 2 min 0 min 167 W/m 12,9 km/h (3 Bft) 97,87 %
20.03.2022 08:42 5,1 C 5,6 C 1,7 C 65 % 1027,8 hPa 0,0 l/m 2 min 0 min 162 W/m 19,3 km/h (3 Bft) 51,22 %
20.03.2022 08:44 5,2 C 6,1 C 1,7 C 65 % 1027,7 hPa 0,0 l/m 2 min 0 min 208 W/m 12,9 km/h (3 Bft) 97,87 %
20.03.2022 08:46 5,3 C 6,1 C 1,7 C 65 % 1027,7 hPa 0,0 l/m 2 min 0 min 218 W/m 19,3 km/h (3 Bft) 95,74 %
20.03.2022 08:48 5,4 C 6,1 C 1,7 C 65 % 1027,7 hPa 0,0 l/m 2 min 0 min 201 W/m 19,3 km/h (3 Bft) 95,74 %
20.03.2022 08:50 5,4 C 6,1 C 1,7 C 64 % 1027,7 hPa 0,0 l/m 0 min 0 min 106 W/m 12,9 km/h (3 Bft) 95,65 %
20.03.2022 08:52 5,4 C 5,6 C 1,1 C 64 % 1027,7 hPa 0,0 l/m 0 min 0 min 90 W/m 22,5 km/h (4 Bft) 97,87 %
20.03.2022 08:54 5,4 C 6,1 C 1,1 C 64 % 1027,7 hPa 0,0 l/m 0 min 0 min 141 W/m 12,9 km/h (3 Bft) 95,74 %
20.03.2022 08:56 5,4 C 6,1 C 1,1 C 64 % 1027,7 hPa 0,0 l/m 2 min 0 min 180 W/m 16,1 km/h (3 Bft) 97,87 %
20.03.2022 08:58 5,4 C 6,7 C 1,7 C 64 % 1027,7 hPa 0,0 l/m 2 min 0 min 197 W/m 12,9 km/h (3 Bft) 97,87 %
20.03.2022 09:00 5,4 C 7,2 C 1,7 C 65 % 1027,6 hPa 0,0 l/m 2 min 0 min 230 W/m 9,7 km/h (2 Bft) 97,87 %
20.03.2022 09:02 5,5 C 7,8 C 1,7 C 64 % 1027,6 hPa 0,0 l/m 2 min 0 min 251 W/m 12,9 km/h (3 Bft) 97,83 %
20.03.2022 09:04 5,6 C 8,3 C 1,7 C 64 % 1027,6 hPa 0,0 l/m 2 min 0 min 268 W/m 16,1 km/h (3 Bft) 93,62 %
20.03.2022 09:06 5,7 C 8,9 C 2,2 C 64 % 1027,5 hPa 0,0 l/m 2 min 0 min 289 W/m 12,9 km/h (3 Bft) 95,74 %
20.03.2022 09:08 5,7 C 9,4 C 2,2 C 64 % 1027,5 hPa 0,0 l/m 2 min 0 min 289 W/m 12,9 km/h (3 Bft) 93,62 %
20.03.2022 09:10 5,8 C 9,4 C 2,2 C 64 % 1027,5 hPa 0,0 l/m 2 min 0 min 302 W/m 12,9 km/h (3 Bft) 95,74 %
20.03.2022 09:12 5,9 C 9,4 C 2,2 C 63 % 1027,4 hPa 0,0 l/m 2 min 0 min 292 W/m 19,3 km/h (3 Bft) 97,87 %
20.03.2022 09:14 6,0 C 9,4 C 2,2 C 63 % 1027,4 hPa 0,0 l/m 2 min 0 min 303 W/m 16,1 km/h (3 Bft) 97,83 %
20.03.2022 09:16 6,1 C 10,0 C 2,2 C 63 % 1027,5 hPa 0,0 l/m 2 min 0 min 268 W/m 16,1 km/h (3 Bft) 97,87 %
20.03.2022 09:18 6,2 C 10,0 C 2,8 C 62 % 1027,5 hPa 0,0 l/m 2 min 0 min 251 W/m 19,3 km/h (3 Bft) 91,49 %
20.03.2022 09:20 6,3 C 10,0 C 2,8 C 63 % 1027,4 hPa 0,0 l/m 2 min 0 min 250 W/m 16,1 km/h (3 Bft) 97,87 %
20.03.2022 09:22 6,4 C 10,0 C 2,8 C 62 % 1027,5 hPa 0,0 l/m 2 min 0 min 290 W/m 16,1 km/h (3 Bft) 97,87 %
20.03.2022 09:24 6,5 C 10,0 C 2,8 C 62 % 1027,5 hPa 0,0 l/m 2 min 0 min 318 W/m 12,9 km/h (3 Bft) 97,87 %
20.03.2022 09:26 6,6 C 10,6 C 2,8 C 62 % 1027,4 hPa 0,0 l/m 2 min 0 min 284 W/m 19,3 km/h (3 Bft) 95,65 %
20.03.2022 09:28 6,7 C 10,6 C 2,8 C 62 % 1027,5 hPa 0,0 l/m 2 min 0 min 315 W/m 19,3 km/h (3 Bft) 97,87 %
20.03.2022 09:30 6,8 C 11,1 C 3,3 C 62 % 1027,4 hPa 0,0 l/m 2 min 0 min 242 W/m 22,5 km/h (4 Bft) 97,87 %
20.03.2022 09:32 6,9 C 10,6 C 3,3 C 62 % 1027,3 hPa 0,0 l/m 2 min 0 min 225 W/m 12,9 km/h (3 Bft) 97,87 %
20.03.2022 09:34 7,1 C 11,1 C 3,3 C 61 % 1027,2 hPa 0,0 l/m 2 min 0 min 223 W/m 12,9 km/h (3 Bft) 97,87 %
20.03.2022 09:36 7,2 C 10,6 C 3,3 C 61 % 1027,3 hPa 0,0 l/m 2 min 0 min 328 W/m 16,1 km/h (3 Bft) 97,87 %
20.03.2022 09:38 7,2 C 10,6 C 3,3 C 60 % 1027,3 hPa 0,0 l/m 2 min 0 min 307 W/m 16,1 km/h (3 Bft) 97,83 %
20.03.2022 09:40 7,3 C 10,6 C 3,9 C 61 % 1027,3 hPa 0,0 l/m 2 min 0 min 297 W/m 12,9 km/h (3 Bft) 97,87 %
20.03.2022 09:42 7,4 C 10,6 C 3,9 C 61 % 1027,3 hPa 0,0 l/m 0 min 0 min 203 W/m 19,3 km/h (3 Bft) 95,74 %
20.03.2022 09:44 7,6 C 10,0 C 3,9 C 60 % 1027,4 hPa 0,0 l/m 2 min 0 min 325 W/m 12,9 km/h (3 Bft) 97,87 %
20.03.2022 09:46 7,6 C 10,0 C 3,9 C 60 % 1027,4 hPa 0,0 l/m 2 min 0 min 303 W/m 19,3 km/h (3 Bft) 97,87 %
20.03.2022 09:48 7,7 C 10,0 C 3,9 C 60 % 1027,4 hPa 0,0 l/m 0 min 0 min 194 W/m 12,9 km/h (3 Bft) 97,87 %
20.03.2022 09:50 7,8 C 9,4 C 3,9 C 60 % 1027,4 hPa 0,0 l/m 2 min 0 min 227 W/m 16,1 km/h (3 Bft) 95,65 %
20.03.2022 09:52 7,8 C 8,9 C 3,9 C 60 % 1027,4 hPa 0,0 l/m 0 min 0 min 106 W/m 16,1 km/h (3 Bft) 97,87 %
20.03.2022 09:54 7,8 C 8,3 C 3,3 C 59 % 1027,3 hPa 0,0 l/m 0 min 0 min 120 W/m 16,1 km/h (3 Bft) 97,87 %
20.03.2022 09:56 7,7 C 7,8 C 3,3 C 60 % 1027,2 hPa 0,0 l/m 0 min 0 min 148 W/m 9,7 km/h (2 Bft) 97,87 %
20.03.2022 09:58 7,7 C 7,8 C 3,3 C 60 % 1027,1 hPa 0,0 l/m 0 min 0 min 157 W/m 16,1 km/h (3 Bft) 97,87 %
20.03.2022 10:00 7,7 C 7,8 C 3,9 C 60 % 1027,2 hPa 0,0 l/m 0 min 0 min 171 W/m 12,9 km/h (3 Bft) 97,87 %
20.03.2022 10:02 7,7 C 7,8 C 3,9 C 61 % 1027,2 hPa 0,0 l/m 0 min 0 min 196 W/m 16,1 km/h (3 Bft) 95,65 %
20.03.2022 10:04 7,7 C 8,3 C 3,9 C 60 % 1027,5 hPa 0,0 l/m 0 min 0 min 199 W/m 16,1 km/h (3 Bft) 97,87 %
20.03.2022 10:06 7,8 C 8,3 C 3,9 C 60 % 1027,4 hPa 0,0 l/m 0 min 0 min 196 W/m 22,5 km/h (4 Bft) 97,56 %
20.03.2022 10:08 7,9 C 8,3 C 4,4 C 59 % 1027,4 hPa 0,0 l/m 0 min 0 min 192 W/m 22,5 km/h (4 Bft) 97,87 %
20.03.2022 10:10 8,0 C 8,3 C 4,4 C 59 % 1027,4 hPa 0,0 l/m 0 min 0 min 195 W/m 22,5 km/h (4 Bft) 97,87 %
20.03.2022 10:12 8,1 C 8,3 C 4,4 C 58 % 1027,3 hPa 0,0 l/m 0 min 0 min 198 W/m 25,7 km/h (4 Bft) 97,87 %
20.03.2022 10:14 8,1 C 8,3 C 4,4 C 58 % 1027,3 hPa 0,0 l/m 0 min 0 min 200 W/m 25,7 km/h (4 Bft) 97,87 %
20.03.2022 10:16 8,2 C 8,3 C 4,4 C 58 % 1027,4 hPa 0,0 l/m 0 min 0 min 194 W/m 22,5 km/h (4 Bft) 95,74 %
20.03.2022 10:18 8,3 C 8,3 C 4,4 C 58 % 1027,4 hPa 0,0 l/m 0 min 0 min 177 W/m 19,3 km/h (3 Bft) 97,83 %
20.03.2022 10:20 8,3 C 8,3 C 4,4 C 58 % 1027,4 hPa 0,0 l/m 0 min 0 min 174 W/m 29,0 km/h (5 Bft) 97,87 %
20.03.2022 10:22 8,3 C 8,3 C 4,4 C 58 % 1027,4 hPa 0,0 l/m 0 min 0 min 175 W/m 22,5 km/h (4 Bft) 100,00 %
20.03.2022 10:24 8,3 C 8,3 C 4,4 C 57 % 1027,3 hPa 0,0 l/m 0 min 0 min 176 W/m 35,4 km/h (5 Bft) 95,74 %
20.03.2022 10:26 8,3 C 8,3 C 4,4 C 57 % 1027,3 hPa 0,0 l/m 0 min 0 min 172 W/m 25,7 km/h (4 Bft) 100,00 %
20.03.2022 10:28 8,4 C 8,3 C 4,4 C 57 % 1027,3 hPa 0,0 l/m 0 min 0 min 162 W/m 29,0 km/h (5 Bft) 97,87 %
20.03.2022 10:30 8,4 C 8,3 C 4,4 C 58 % 1027,3 hPa 0,0 l/m 0 min 0 min 156 W/m 29,0 km/h (5 Bft) 97,83 %
20.03.2022 10:32 8,4 C 7,8 C 4,4 C 57 % 1027,4 hPa 0,0 l/m 0 min 0 min 153 W/m 29,0 km/h (5 Bft) 97,87 %
20.03.2022 10:34 8,4 C 7,8 C 4,4 C 57 % 1027,3 hPa 0,0 l/m 0 min 0 min 152 W/m 22,5 km/h (4 Bft) 95,74 %
20.03.2022 10:36 8,4 C 7,8 C 4,4 C 57 % 1027,2 hPa 0,0 l/m 0 min 0 min 163 W/m 22,5 km/h (4 Bft) 95,74 %
20.03.2022 10:38 8,4 C 8,3 C 4,4 C 57 % 1027,2 hPa 0,0 l/m 0 min 0 min 173 W/m 25,7 km/h (4 Bft) 95,74 %
20.03.2022 10:40 8,4 C 8,3 C 4,4 C 57 % 1027,2 hPa 0,0 l/m 0 min 0 min 167 W/m 25,7 km/h (4 Bft) 93,48 %
20.03.2022 10:42 8,4 C 8,3 C 4,4 C 58 % 1027,1 hPa 0,0 l/m 0 min 0 min 155 W/m 19,3 km/h (3 Bft) 93,62 %
20.03.2022 10:44 8,4 C 8,3 C 4,4 C 57 % 1027,2 hPa 0,0 l/m 0 min 0 min 141 W/m 29,0 km/h (5 Bft) 95,74 %
20.03.2022 10:46 8,4 C 8,3 C 4,4 C 58 % 1027,2 hPa 0,0 l/m 0 min 0 min 129 W/m 22,5 km/h (4 Bft) 95,74 %
20.03.2022 10:48 8,4 C 7,8 C 4,4 C 58 % 1027,2 hPa 0,0 l/m 0 min 0 min 110 W/m 19,3 km/h (3 Bft) 95,74 %
20.03.2022 10:50 8,4 C 7,8 C 4,4 C 58 % 1027,3 hPa 0,0 l/m 0 min 0 min 101 W/m 22,5 km/h (4 Bft) 95,74 %
20.03.2022 10:52 8,4 C 7,8 C 3,9 C 57 % 1027,3 hPa 0,0 l/m 0 min 0 min 102 W/m 19,3 km/h (3 Bft) 93,48 %
20.03.2022 10:54 8,4 C 7,8 C 3,9 C 58 % 1027,4 hPa 0,0 l/m 0 min 0 min 95 W/m 19,3 km/h (3 Bft) 95,74 %
20.03.2022 10:56 8,4 C 7,8 C 3,9 C 58 % 1027,4 hPa 0,0 l/m 0 min 0 min 94 W/m 25,7 km/h (4 Bft) 95,74 %
20.03.2022 10:58 8,4 C 7,8 C 3,9 C 58 % 1027,4 hPa 0,0 l/m 0 min 0 min 92 W/m 35,4 km/h (5 Bft) 93,62 %
20.03.2022 11:00 8,3 C 7,8 C 3,9 C 58 % 1027,4 hPa 0,0 l/m 0 min 0 min 98 W/m 22,5 km/h (4 Bft) 95,74 %
20.03.2022 11:02 8,3 C 7,8 C 3,9 C 59 % 1027,4 hPa 0,0 l/m 0 min 0 min 109 W/m 19,3 km/h (3 Bft) 93,62 %
20.03.2022 11:04 8,3 C 7,8 C 3,9 C 59 % 1027,4 hPa 0,0 l/m 0 min 0 min 113 W/m 19,3 km/h (3 Bft) 95,92 %
20.03.2022 11:06 8,3 C 7,8 C 3,9 C 58 % 1027,4 hPa 0,0 l/m 0 min 0 min 106 W/m 25,7 km/h (4 Bft) 95,74 %
20.03.2022 11:08 8,3 C 7,8 C 3,9 C 58 % 1027,4 hPa 0,0 l/m 0 min 0 min 105 W/m 32,2 km/h (5 Bft) 95,74 %
20.03.2022 11:10 8,3 C 7,8 C 3,9 C 58 % 1027,4 hPa 0,0 l/m 0 min 0 min 120 W/m 22,5 km/h (4 Bft) 95,74 %
20.03.2022 11:12 8,3 C 7,8 C 3,9 C 58 % 1027,4 hPa 0,0 l/m 0 min 0 min 146 W/m 22,5 km/h (4 Bft) 97,87 %
20.03.2022 11:14 8,3 C 8,3 C 4,4 C 58 % 1027,3 hPa 0,0 l/m 0 min 0 min 171 W/m 19,3 km/h (3 Bft) 97,87 %
20.03.2022 11:16 8,3 C 8,3 C 4,4 C 58 % 1027,4 hPa 0,0 l/m 0 min 0 min 188 W/m 16,1 km/h (3 Bft) 97,83 %
20.03.2022 11:18 8,3 C 8,3 C 4,4 C 59 % 1027,2 hPa 0,0 l/m 0 min 0 min 185 W/m 19,3 km/h (3 Bft) 100,00 %
20.03.2022 11:20 8,4 C 8,9 C 4,4 C 59 % 1027,3 hPa 0,0 l/m 0 min 0 min 182 W/m 12,9 km/h (3 Bft) 100,00 %
20.03.2022 11:22 8,4 C 8,9 C 5,0 C 59 % 1027,3 hPa 0,0 l/m 0 min 0 min 208 W/m 16,1 km/h (3 Bft) 97,87 %
20.03.2022 11:24 8,6 C 9,4 C 5,0 C 60 % 1027,3 hPa 0,0 l/m 0 min 0 min 233 W/m 9,7 km/h (2 Bft) 100,00 %
20.03.2022 11:26 8,7 C 9,4 C 5,0 C 59 % 1027,3 hPa 0,0 l/m 0 min 0 min 227 W/m 16,1 km/h (3 Bft) 100,00 %
20.03.2022 11:28 8,7 C 9,4 C 5,0 C 59 % 1027,3 hPa 0,0 l/m 0 min 0 min 213 W/m 12,9 km/h (3 Bft) 100,00 %
20.03.2022 11:30 8,8 C 9,4 C 5,0 C 59 % 1027,2 hPa 0,0 l/m 0 min 0 min 213 W/m 9,7 km/h (2 Bft) 100,00 %
20.03.2022 11:32 8,9 C 9,4 C 5,6 C 60 % 1027,1 hPa 0,0 l/m 0 min 0 min 228 W/m 19,3 km/h (3 Bft) 100,00 %
20.03.2022 11:34 9,0 C 10,0 C 5,6 C 59 % 1027,1 hPa 0,0 l/m 0 min 0 min 259 W/m 16,1 km/h (3 Bft) 97,87 %
20.03.2022 11:36 9,1 C 10,0 C 5,6 C 59 % 1027,1 hPa 0,0 l/m 0 min 0 min 258 W/m 38,6 km/h (5 Bft) 100,00 %
20.03.2022 11:38 9,2 C 9,4 C 5,6 C 58 % 1027,1 hPa 0,0 l/m 0 min 0 min 199 W/m 22,5 km/h (4 Bft) 100,00 %
20.03.2022 11:40 9,2 C 9,4 C 5,6 C 57 % 1027,0 hPa 0,0 l/m 0 min 0 min 206 W/m 19,3 km/h (3 Bft) 100,00 %
20.03.2022 11:42 9,3 C 9,4 C 5,6 C 58 % 1027,0 hPa 0,0 l/m 0 min 0 min 234 W/m 16,1 km/h (3 Bft) 100,00 %
20.03.2022 11:44 9,3 C 9,4 C 5,6 C 58 % 1027,1 hPa 0,0 l/m 0 min 0 min 246 W/m 19,3 km/h (3 Bft) 100,00 %
20.03.2022 11:46 9,4 C 9,4 C 5,6 C 58 % 1027,1 hPa 0,0 l/m 0 min 0 min 241 W/m 19,3 km/h (3 Bft) 100,00 %
20.03.2022 11:48 9,4 C 10,0 C 5,6 C 57 % 1027,1 hPa 0,0 l/m 0 min 0 min 233 W/m 16,1 km/h (3 Bft) 100,00 %
20.03.2022 11:50 9,5 C 10,0 C 5,6 C 58 % 1027,1 hPa 0,0 l/m 0 min 0 min 228 W/m 16,1 km/h (3 Bft) 100,00 %
20.03.2022 11:52 9,6 C 10,0 C 5,6 C 58 % 1027,1 hPa 0,0 l/m 0 min 0 min 219 W/m 22,5 km/h (4 Bft) 100,00 %
20.03.2022 11:54 9,6 C 9,4 C 5,6 C 57 % 1027,1 hPa 0,0 l/m 0 min 0 min 190 W/m 16,1 km/h (3 Bft) 100,00 %
20.03.2022 11:56 9,6 C 9,4 C 5,6 C 57 % 1027,1 hPa 0,0 l/m 0 min 0 min 187 W/m 19,3 km/h (3 Bft) 100,00 %
20.03.2022 11:58 9,6 C 10,0 C 5,6 C 58 % 1027,0 hPa 0,0 l/m 0 min 0 min 215 W/m 16,1 km/h (3 Bft) 57,45 %
20.03.2022 12:00 9,7 C 10,0 C 5,6 C 57 % 1027,0 hPa 0,0 l/m 0 min 0 min 240 W/m 22,5 km/h (4 Bft) 100,00 %
20.03.2022 12:02 9,7 C 10,0 C 5,6 C 58 % 1027,0 hPa 0,0 l/m 0 min 0 min 210 W/m 16,1 km/h (3 Bft) 97,83 %
20.03.2022 12:04 9,8 C 10,0 C 5,6 C 58 % 1026,9 hPa 0,0 l/m 0 min 0 min 196 W/m 22,5 km/h (4 Bft) 100,00 %
20.03.2022 12:08 9,8 C 10,0 C 5,6 C 57 % 1026,9 hPa 0,0 l/m 0 min 0 min 209 W/m 25,7 km/h (4 Bft) 100,00 %
20.03.2022 12:10 9,8 C 10,0 C 5,6 C 58 % 1026,9 hPa 0,0 l/m 0 min 0 min 195 W/m 22,5 km/h (4 Bft) 100,00 %
20.03.2022 12:12 9,9 C 10,0 C 6,1 C 58 % 1026,9 hPa 0,0 l/m 0 min 0 min 204 W/m 16,1 km/h (3 Bft) 100,00 %
20.03.2022 12:14 9,9 C 10,6 C 6,1 C 58 % 1026,9 hPa 0,0 l/m 0 min 0 min 214 W/m 22,5 km/h (4 Bft) 100,00 %
20.03.2022 12:16 10,0 C 10,0 C 6,1 C 57 % 1026,9 hPa 0,0 l/m 0 min 0 min 180 W/m 32,2 km/h (5 Bft) 97,87 %
20.03.2022 12:18 10,1 C 10,0 C 6,1 C 57 % 1026,9 hPa 0,0 l/m 0 min 0 min 133 W/m 25,7 km/h (4 Bft) 97,87 %
20.03.2022 12:20 10,1 C 10,0 C 5,6 C 56 % 1026,9 hPa 0,0 l/m 0 min 0 min 118 W/m 16,1 km/h (3 Bft) 100,00 %
20.03.2022 12:22 10,1 C 10,0 C 5,6 C 57 % 1026,9 hPa 0,0 l/m 0 min 0 min 115 W/m 16,1 km/h (3 Bft) 100,00 %
20.03.2022 12:24 10,1 C 10,0 C 5,6 C 56 % 1026,9 hPa 0,0 l/m 0 min 0 min 109 W/m 19,3 km/h (3 Bft) 100,00 %
20.03.2022 12:26 10,1 C 9,4 C 5,6 C 57 % 1027,0 hPa 0,0 l/m 0 min 0 min 112 W/m 32,2 km/h (5 Bft) 97,83 %
20.03.2022 12:28 10,1 C 9,4 C 5,6 C 57 % 1027,0 hPa 0,0 l/m 0 min 0 min 103 W/m 19,3 km/h (3 Bft) 95,74 %
20.03.2022 12:30 10,1 C 10,0 C 5,6 C 57 % 1027,0 hPa 0,0 l/m 0 min 0 min 111 W/m 19,3 km/h (3 Bft) 100,00 %
20.03.2022 12:32 10,1 C 10,0 C 5,6 C 57 % 1026,9 hPa 0,0 l/m 0 min 0 min 132 W/m 19,3 km/h (3 Bft) 100,00 %
20.03.2022 12:34 10,1 C 10,0 C 5,6 C 57 % 1027,0 hPa 0,0 l/m 0 min 0 min 148 W/m 19,3 km/h (3 Bft) 97,87 %
20.03.2022 12:36 10,1 C 10,0 C 6,1 C 57 % 1027,0 hPa 0,0 l/m 0 min 0 min 150 W/m 12,9 km/h (3 Bft) 100,00 %
20.03.2022 12:38 10,2 C 10,6 C 6,1 C 57 % 1027,0 hPa 0,0 l/m 0 min 0 min 188 W/m 22,5 km/h (4 Bft) 97,83 %
20.03.2022 12:40 10,2 C 10,6 C 6,1 C 57 % 1026,9 hPa 0,0 l/m 0 min 0 min 243 W/m 16,1 km/h (3 Bft) 95,74 %
20.03.2022 12:42 10,3 C 10,6 C 6,7 C 57 % 1026,9 hPa 0,0 l/m 0 min 0 min 242 W/m 22,5 km/h (4 Bft) 95,74 %
20.03.2022 12:44 10,4 C 10,6 C 6,7 C 57 % 1026,8 hPa 0,0 l/m 0 min 0 min 250 W/m 22,5 km/h (4 Bft) 95,74 %
20.03.2022 12:46 10,4 C 10,6 C 6,7 C 57 % 1026,7 hPa 0,0 l/m 0 min 0 min 176 W/m 19,3 km/h (3 Bft) 93,62 %
20.03.2022 12:48 10,5 C 10,6 C 6,7 C 57 % 1026,8 hPa 0,0 l/m 0 min 0 min 140 W/m 22,5 km/h (4 Bft) 95,74 %
20.03.2022 12:50 10,5 C 10,6 C 6,7 C 57 % 1026,8 hPa 0,0 l/m 0 min 0 min 215 W/m 32,2 km/h (5 Bft) 94,59 %
20.03.2022 12:52 10,6 C 10,6 C 6,7 C 57 % 1026,7 hPa 0,0 l/m 0 min 0 min 160 W/m 19,3 km/h (3 Bft) 94,00 %
20.03.2022 12:54 10,6 C 10,0 C 6,1 C 57 % 1026,7 hPa 0,0 l/m 0 min 0 min 136 W/m 16,1 km/h (3 Bft) 95,74 %
20.03.2022 12:56 10,6 C 10,0 C 6,1 C 57 % 1026,7 hPa 0,0 l/m 0 min 0 min 129 W/m 16,1 km/h (3 Bft) 95,74 %
20.03.2022 12:58 10,6 C 10,0 C 6,1 C 57 % 1026,7 hPa 0,0 l/m 0 min 0 min 73 W/m 25,7 km/h (4 Bft) 91,49 %
20.03.2022 13:00 10,6 C 10,0 C 6,1 C 57 % 1026,7 hPa 0,0 l/m 0 min 0 min 33 W/m 22,5 km/h (4 Bft) 95,74 %
20.03.2022 13:02 10,5 C 9,4 C 5,6 C 57 % 1026,8 hPa 0,0 l/m 0 min 0 min 20 W/m 19,3 km/h (3 Bft) 95,65 %
20.03.2022 13:04 10,4 C 9,4 C 5,6 C 57 % 1026,8 hPa 0,0 l/m 0 min 0 min 18 W/m 25,7 km/h (4 Bft) 95,74 %
20.03.2022 13:06 10,4 C 9,4 C 5,6 C 58 % 1026,8 hPa 0,0 l/m 0 min 0 min 21 W/m 22,5 km/h (4 Bft) 93,62 %
20.03.2022 13:08 10,4 C 9,4 C 5,6 C 58 % 1026,8 hPa 0,0 l/m 0 min 0 min 29 W/m 19,3 km/h (3 Bft) 93,62 %
20.03.2022 13:10 10,3 C 9,4 C 5,6 C 60 % 1026,8 hPa 0,0 l/m 0 min 2 min 37 W/m 19,3 km/h (3 Bft) 93,62 %
20.03.2022 13:12 10,3 C 9,4 C 4,4 C 61 % 1026,8 hPa 0,0 l/m 0 min 2 min 39 W/m 12,9 km/h (3 Bft) 91,49 %
20.03.2022 13:14 10,2 C 9,4 C 4,4 C 62 % 1026,8 hPa 0,0 l/m 0 min 2 min 37 W/m 19,3 km/h (3 Bft) 93,48 %
20.03.2022 13:16 10,2 C 8,9 C 3,9 C 64 % 1026,8 hPa 0,0 l/m 0 min 2 min 40 W/m 25,7 km/h (4 Bft) 95,74 %
20.03.2022 13:18 10,1 C 8,3 C 2,8 C 65 % 1027,0 hPa 0,0 l/m 0 min 2 min 35 W/m 35,4 km/h (5 Bft) 93,62 %
20.03.2022 13:20 9,9 C 8,3 C 2,2 C 67 % 1027,0 hPa 0,2 l/m 0 min 2 min 21 W/m 19,3 km/h (3 Bft) 95,74 %
20.03.2022 13:22 9,7 C 7,8 C 2,2 C 69 % 1027,0 hPa 0,0 l/m 0 min 2 min 19 W/m 25,7 km/h (4 Bft) 95,74 %
20.03.2022 13:24 9,6 C 7,2 C 1,7 C 70 % 1027,1 hPa 0,0 l/m 0 min 2 min 24 W/m 41,8 km/h (6 Bft) 97,83 %
20.03.2022 13:26 9,3 C 6,7 C 1,7 C 72 % 1027,2 hPa 0,2 l/m 0 min 2 min 22 W/m 35,4 km/h (5 Bft) 95,74 %
20.03.2022 13:28 9,1 C 6,7 C 1,7 C 74 % 1027,1 hPa 0,0 l/m 0 min 2 min 22 W/m 29,0 km/h (5 Bft) 97,87 %
20.03.2022 13:30 8,9 C 6,7 C 1,7 C 75 % 1027,1 hPa 0,0 l/m 0 min 2 min 26 W/m 22,5 km/h (4 Bft) 97,87 %
20.03.2022 13:32 8,8 C 6,7 C 1,7 C 76 % 1027,2 hPa 0,2 l/m 0 min 2 min 29 W/m 19,3 km/h (3 Bft) 97,87 %
20.03.2022 13:34 8,7 C 6,7 C 2,2 C 77 % 1027,2 hPa 0,2 l/m 0 min 2 min 33 W/m 25,7 km/h (4 Bft) 97,87 %
20.03.2022 13:36 8,6 C 6,7 C 2,2 C 78 % 1027,1 hPa 0,0 l/m 0 min 2 min 34 W/m 22,5 km/h (4 Bft) 95,74 %
20.03.2022 13:38 8,4 C 6,7 C 2,2 C 79 % 1027,0 hPa 0,2 l/m 0 min 2 min 31 W/m 12,9 km/h (3 Bft) 97,83 %
20.03.2022 13:40 8,3 C 6,1 C 2,2 C 80 % 1027,1 hPa 0,0 l/m 0 min 2 min 32 W/m 12,9 km/h (3 Bft) 93,62 %
20.03.2022 13:42 8,2 C 6,1 C 2,2 C 81 % 1027,1 hPa 0,2 l/m 0 min 2 min 37 W/m 12,9 km/h (3 Bft) 97,87 %
20.03.2022 13:44 8,1 C 6,1 C 2,2 C 82 % 1027,1 hPa 0,0 l/m 0 min 2 min 40 W/m 9,7 km/h (2 Bft) 97,87 %
20.03.2022 13:46 8,1 C 6,1 C 2,2 C 83 % 1027,2 hPa 0,2 l/m 0 min 2 min 33 W/m 12,9 km/h (3 Bft) 95,74 %
20.03.2022 13:48 8,0 C 6,1 C 2,2 C 83 % 1027,1 hPa 0,2 l/m 0 min 2 min 36 W/m 16,1 km/h (3 Bft) 100,00 %
20.03.2022 13:50 7,9 C 6,1 C 2,2 C 84 % 1027,1 hPa 0,2 l/m 0 min 2 min 40 W/m 16,1 km/h (3 Bft) 97,83 %
20.03.2022 13:52 7,8 C 6,1 C 2,2 C 84 % 1027,1 hPa 0,0 l/m 0 min 2 min 44 W/m 19,3 km/h (3 Bft) 95,74 %
20.03.2022 13:54 7,8 C 6,1 C 2,2 C 85 % 1027,2 hPa 0,2 l/m 0 min 2 min 38 W/m 19,3 km/h (3 Bft) 97,87 %
20.03.2022 13:56 7,7 C 6,1 C 2,2 C 85 % 1027,2 hPa 0,2 l/m 0 min 2 min 34 W/m 16,1 km/h (3 Bft) 97,87 %
20.03.2022 13:58 7,7 C 6,1 C 2,2 C 86 % 1027,2 hPa 0,2 l/m 0 min 2 min 38 W/m 12,9 km/h (3 Bft) 100,00 %
20.03.2022 14:00 7,7 C 6,1 C 2,2 C 86 % 1027,2 hPa 0,0 l/m 0 min 2 min 33 W/m 6,4 km/h (2 Bft) 100,00 %
20.03.2022 14:02 7,6 C 6,1 C 2,2 C 87 % 1027,2 hPa 0,4 l/m 0 min 2 min 29 W/m 25,7 km/h (4 Bft) 97,87 %
20.03.2022 14:04 7,6 C 6,1 C 2,2 C 87 % 1027,2 hPa 0,0 l/m 0 min 2 min 26 W/m 16,1 km/h (3 Bft) 100,00 %
20.03.2022 14:06 7,4 C 6,1 C 2,2 C 88 % 1027,3 hPa 0,2 l/m 0 min 2 min 23 W/m 12,9 km/h (3 Bft) 100,00 %
20.03.2022 14:08 7,4 C 6,1 C 2,2 C 88 % 1027,2 hPa 0,0 l/m 0 min 2 min 26 W/m 12,9 km/h (3 Bft) 100,00 %
20.03.2022 14:10 7,4 C 6,1 C 2,2 C 88 % 1027,3 hPa 0,2 l/m 0 min 2 min 28 W/m 16,1 km/h (3 Bft) 100,00 %
20.03.2022 14:12 7,3 C 6,1 C 2,2 C 89 % 1027,3 hPa 0,0 l/m 0 min 2 min 24 W/m 12,9 km/h (3 Bft) 100,00 %
20.03.2022 14:14 7,3 C 6,1 C 2,2 C 89 % 1027,3 hPa 0,0 l/m 0 min 2 min 23 W/m 16,1 km/h (3 Bft) 100,00 %
20.03.2022 14:16 7,3 C 6,1 C 2,2 C 89 % 1027,3 hPa 0,2 l/m 0 min 2 min 25 W/m 16,1 km/h (3 Bft) 100,00 %
20.03.2022 14:18 7,3 C 6,1 C 2,2 C 89 % 1027,3 hPa 0,2 l/m 0 min 2 min 26 W/m 16,1 km/h (3 Bft) 100,00 %
20.03.2022 14:20 7,3 C 6,1 C 2,2 C 89 % 1027,4 hPa 0,2 l/m 0 min 2 min 30 W/m 22,5 km/h (4 Bft) 100,00 %
20.03.2022 14:22 7,2 C 6,1 C 2,2 C 90 % 1027,3 hPa 0,0 l/m 0 min 2 min 27 W/m 16,1 km/h (3 Bft) 100,00 %
20.03.2022 14:24 7,2 C 6,1 C 2,2 C 90 % 1027,3 hPa 0,2 l/m 0 min 2 min 31 W/m 19,3 km/h (3 Bft) 100,00 %
20.03.2022 14:26 7,2 C 6,1 C 2,2 C 90 % 1027,3 hPa 0,0 l/m 0 min 2 min 34 W/m 19,3 km/h (3 Bft) 100,00 %
20.03.2022 14:28 7,2 C 6,1 C 2,2 C 90 % 1027,3 hPa 0,0 l/m 0 min 2 min 38 W/m 19,3 km/h (3 Bft) 100,00 %
20.03.2022 14:30 7,2 C 6,1 C 2,2 C 90 % 1027,3 hPa 0,2 l/m 0 min 2 min 35 W/m 19,3 km/h (3 Bft) 100,00 %
20.03.2022 14:32 7,2 C 6,1 C 2,2 C 90 % 1027,3 hPa 0,0 l/m 0 min 2 min 30 W/m 16,1 km/h (3 Bft) 100,00 %
20.03.2022 14:34 7,1 C 6,1 C 2,2 C 91 % 1027,2 hPa 0,2 l/m 0 min 2 min 31 W/m 19,3 km/h (3 Bft) 97,87 %
20.03.2022 14:36 7,1 C 6,1 C 2,2 C 91 % 1027,2 hPa 0,0 l/m 0 min 2 min 32 W/m 12,9 km/h (3 Bft) 97,83 %
20.03.2022 14:38 7,1 C 6,1 C 2,2 C 91 % 1027,2 hPa 0,0 l/m 0 min 2 min 33 W/m 12,9 km/h (3 Bft) 97,87 %
20.03.2022 14:40 7,1 C 6,1 C 2,2 C 91 % 1027,2 hPa 0,0 l/m 0 min 2 min 32 W/m 12,9 km/h (3 Bft) 97,87 %
20.03.2022 14:42 7,1 C 6,1 C 2,2 C 91 % 1027,2 hPa 0,2 l/m 0 min 2 min 40 W/m 16,1 km/h (3 Bft) 97,87 %
20.03.2022 14:44 7,1 C 6,1 C 2,2 C 91 % 1027,2 hPa 0,0 l/m 0 min 2 min 33 W/m 12,9 km/h (3 Bft) 97,87 %
20.03.2022 14:46 7,1 C 6,1 C 2,2 C 91 % 1027,2 hPa 0,0 l/m 0 min 2 min 28 W/m 16,1 km/h (3 Bft) 97,87 %
20.03.2022 14:48 7,1 C 6,1 C 2,2 C 91 % 1027,2 hPa 0,0 l/m 0 min 2 min 27 W/m 12,9 km/h (3 Bft) 97,83 %
20.03.2022 14:50 7,1 C 6,1 C 2,2 C 91 % 1027,2 hPa 0,0 l/m 0 min 2 min 27 W/m 16,1 km/h (3 Bft) 97,87 %
20.03.2022 14:52 7,1 C 6,1 C 2,2 C 91 % 1027,2 hPa 0,0 l/m 0 min 2 min 24 W/m 6,4 km/h (2 Bft) 97,87 %
20.03.2022 14:54 7,1 C 6,1 C 2,2 C 91 % 1027,2 hPa 0,0 l/m 0 min 0 min 24 W/m 9,7 km/h (2 Bft) 95,74 %
20.03.2022 14:56 7,1 C 6,1 C 2,2 C 91 % 1027,2 hPa 0,0 l/m 0 min 2 min 25 W/m 6,4 km/h (2 Bft) 93,62 %
20.03.2022 14:58 7,1 C 6,1 C 2,2 C 91 % 1027,2 hPa 0,0 l/m 0 min 0 min 30 W/m 9,7 km/h (2 Bft) 97,87 %
20.03.2022 15:00 7,1 C 6,1 C 2,2 C 91 % 1027,2 hPa 0,0 l/m 0 min 0 min 36 W/m 6,4 km/h (2 Bft) 97,83 %
20.03.2022 15:02 7,1 C 6,7 C 2,2 C 92 % 1027,2 hPa 0,0 l/m 0 min 0 min 45 W/m 6,4 km/h (2 Bft) 95,74 %
20.03.2022 15:04 7,1 C 6,7 C 2,2 C 92 % 1027,2 hPa 0,0 l/m 0 min 0 min 67 W/m 6,4 km/h (2 Bft) 95,74 %
20.03.2022 15:06 7,1 C 7,2 C 2,2 C 92 % 1027,2 hPa 0,0 l/m 0 min 0 min 113 W/m 6,4 km/h (2 Bft) 97,87 %
20.03.2022 15:08 7,1 C 7,8 C 2,8 C 92 % 1027,3 hPa 0,0 l/m 0 min 0 min 160 W/m 3,2 km/h (1 Bft) 95,74 %
20.03.2022 15:10 7,2 C 8,3 C 2,8 C 92 % 1027,3 hPa 0,0 l/m 0 min 0 min 178 W/m 6,4 km/h (2 Bft) 97,87 %
20.03.2022 15:12 7,3 C 10,0 C 3,3 C 92 % 1027,3 hPa 0,0 l/m 2 min 0 min 419 W/m 3,2 km/h (1 Bft) 95,65 %
20.03.2022 15:14 7,4 C 11,1 C 3,3 C 92 % 1027,3 hPa 0,0 l/m 2 min 0 min 442 W/m 12,9 km/h (3 Bft) 97,87 %
20.03.2022 15:16 7,5 C 12,8 C 3,3 C 93 % 1027,3 hPa 0,0 l/m 2 min 0 min 515 W/m 6,4 km/h (2 Bft) 97,87 %
20.03.2022 15:18 7,7 C 13,9 C 3,9 C 93 % 1027,3 hPa 0,0 l/m 2 min 0 min 587 W/m 6,4 km/h (2 Bft) 97,87 %
20.03.2022 15:20 8,1 C 14,4 C 4,4 C 93 % 1027,3 hPa 0,0 l/m 2 min 0 min 581 W/m 12,9 km/h (3 Bft) 97,87 %
20.03.2022 15:22 8,3 C 14,4 C 4,4 C 94 % 1027,3 hPa 0,0 l/m 2 min 0 min 557 W/m 22,5 km/h (4 Bft) 97,87 %
20.03.2022 15:24 8,6 C 13,9 C 4,4 C 93 % 1027,3 hPa 0,0 l/m 2 min 0 min 518 W/m 16,1 km/h (3 Bft) 97,83 %
20.03.2022 15:26 8,7 C 13,9 C 3,9 C 93 % 1027,3 hPa 0,0 l/m 2 min 0 min 428 W/m 25,7 km/h (4 Bft) 96,43 %
20.03.2022 15:28 8,8 C 13,9 C 3,9 C 92 % 1027,3 hPa 0,0 l/m 2 min 0 min 533 W/m 22,5 km/h (4 Bft) 95,74 %
20.03.2022 15:30 9,1 C 14,4 C 4,4 C 92 % 1027,2 hPa 0,0 l/m 2 min 0 min 602 W/m 19,3 km/h (3 Bft) 97,87 %
20.03.2022 15:32 9,3 C 15,0 C 4,4 C 91 % 1027,3 hPa 0,0 l/m 2 min 0 min 584 W/m 25,7 km/h (4 Bft) 97,87 %
20.03.2022 15:34 9,5 C 15,0 C 4,4 C 91 % 1027,3 hPa 0,0 l/m 2 min 0 min 529 W/m 22,5 km/h (4 Bft) 97,83 %
20.03.2022 15:36 9,7 C 15,0 C 4,4 C 89 % 1027,3 hPa 0,0 l/m 2 min 0 min 468 W/m 22,5 km/h (4 Bft) 97,87 %
20.03.2022 15:38 9,8 C 14,4 C 4,4 C 88 % 1027,3 hPa 0,0 l/m 2 min 0 min 401 W/m 16,1 km/h (3 Bft) 95,74 %
20.03.2022 15:40 10,0 C 13,3 C 4,4 C 87 % 1027,3 hPa 0,0 l/m 2 min 0 min 266 W/m 19,3 km/h (3 Bft) 97,87 %
20.03.2022 15:42 10,1 C 13,9 C 4,4 C 86 % 1027,2 hPa 0,0 l/m 2 min 0 min 339 W/m 22,5 km/h (4 Bft) 97,87 %
20.03.2022 15:44 10,1 C 15,0 C 4,4 C 85 % 1027,3 hPa 0,0 l/m 2 min 0 min 475 W/m 25,7 km/h (4 Bft) 97,87 %
20.03.2022 15:46 10,2 C 13,3 C 4,4 C 84 % 1027,2 hPa 0,0 l/m 2 min 0 min 496 W/m 25,7 km/h (4 Bft) 97,83 %
20.03.2022 15:48 10,3 C 12,2 C 4,4 C 83 % 1027,3 hPa 0,0 l/m 0 min 0 min 208 W/m 16,1 km/h (3 Bft) 100,00 %
20.03.2022 15:50 10,3 C 11,7 C 3,9 C 82 % 1027,3 hPa 0,0 l/m 2 min 0 min 238 W/m 25,7 km/h (4 Bft) 100,00 %
20.03.2022 15:52 10,3 C 13,3 C 3,9 C 81 % 1027,3 hPa 0,0 l/m 2 min 0 min 292 W/m 22,5 km/h (4 Bft) 95,74 %
20.03.2022 15:54 10,4 C 13,9 C 4,4 C 81 % 1027,3 hPa 0,0 l/m 2 min 0 min 463 W/m 19,3 km/h (3 Bft) 100,00 %
20.03.2022 15:56 10,5 C 14,4 C 4,4 C 80 % 1027,3 hPa 0,0 l/m 2 min 0 min 413 W/m 29,0 km/h (5 Bft) 100,00 %
20.03.2022 15:58 10,6 C 15,0 C 3,9 C 80 % 1027,4 hPa 0,0 l/m 2 min 0 min 402 W/m 22,5 km/h (4 Bft) 100,00 %
20.03.2022 16:00 10,6 C 14,4 C 3,9 C 79 % 1027,4 hPa 0,0 l/m 2 min 0 min 406 W/m 19,3 km/h (3 Bft) 100,00 %
20.03.2022 16:02 10,7 C 14,4 C 3,9 C 78 % 1027,4 hPa 0,0 l/m 2 min 0 min 404 W/m 25,7 km/h (4 Bft) 95,74 %
20.03.2022 16:04 10,7 C 14,4 C 3,9 C 77 % 1027,4 hPa 0,0 l/m 2 min 0 min 412 W/m 25,7 km/h (4 Bft) 97,87 %
20.03.2022 16:06 10,7 C 15,0 C 3,9 C 77 % 1027,4 hPa 0,0 l/m 2 min 0 min 409 W/m 19,3 km/h (3 Bft) 93,62 %
20.03.2022 16:08 10,8 C 13,9 C 3,9 C 77 % 1027,4 hPa 0,0 l/m 2 min 0 min 413 W/m 29,0 km/h (5 Bft) 95,65 %
20.03.2022 16:10 10,8 C 13,9 C 3,9 C 77 % 1027,4 hPa 0,0 l/m 2 min 0 min 205 W/m 22,5 km/h (4 Bft) 97,87 %
20.03.2022 16:12 10,9 C 13,9 C 3,9 C 76 % 1027,4 hPa 0,0 l/m 2 min 0 min 377 W/m 19,3 km/h (3 Bft) 93,62 %
20.03.2022 16:14 10,9 C 14,4 C 3,9 C 76 % 1027,4 hPa 0,0 l/m 2 min 0 min 435 W/m 16,1 km/h (3 Bft) 97,87 %
20.03.2022 16:16 10,9 C 13,9 C 3,9 C 75 % 1027,5 hPa 0,0 l/m 2 min 0 min 410 W/m 29,0 km/h (5 Bft) 97,87 %
20.03.2022 16:18 11,0 C 14,4 C 3,9 C 75 % 1027,5 hPa 0,0 l/m 2 min 0 min 393 W/m 16,1 km/h (3 Bft) 97,87 %
20.03.2022 16:20 11,0 C 14,4 C 3,9 C 75 % 1027,4 hPa 0,0 l/m 2 min 0 min 381 W/m 19,3 km/h (3 Bft) 97,83 %
20.03.2022 16:22 11,1 C 15,0 C 4,4 C 74 % 1027,4 hPa 0,0 l/m 2 min 0 min 358 W/m 19,3 km/h (3 Bft) 97,87 %
20.03.2022 16:24 11,1 C 14,4 C 3,9 C 74 % 1027,4 hPa 0,0 l/m 2 min 0 min 340 W/m 25,7 km/h (4 Bft) 97,87 %
20.03.2022 16:26 11,2 C 15,0 C 3,9 C 74 % 1027,4 hPa 0,0 l/m 2 min 0 min 324 W/m 16,1 km/h (3 Bft) 95,74 %
20.03.2022 16:28 11,2 C 13,9 C 3,9 C 73 % 1027,5 hPa 0,0 l/m 2 min 0 min 320 W/m 16,1 km/h (3 Bft) 100,00 %
20.03.2022 16:30 11,1 C 13,3 C 3,9 C 72 % 1027,5 hPa 0,0 l/m 2 min 0 min 323 W/m 29,0 km/h (5 Bft) 95,74 %
20.03.2022 16:32 11,1 C 13,3 C 3,9 C 72 % 1027,5 hPa 0,0 l/m 2 min 0 min 295 W/m 16,1 km/h (3 Bft) 96,55 %
20.03.2022 16:34 11,1 C 13,9 C 3,9 C 72 % 1027,5 hPa 0,0 l/m 2 min 0 min 333 W/m 22,5 km/h (4 Bft) 94,44 %
20.03.2022 16:36 11,1 C 12,8 C 3,9 C 72 % 1027,5 hPa 0,0 l/m 2 min 0 min 331 W/m 25,7 km/h (4 Bft) 98,28 %
20.03.2022 16:38 11,1 C 13,3 C 3,9 C 72 % 1027,4 hPa 0,0 l/m 2 min 0 min 322 W/m 16,1 km/h (3 Bft) 97,87 %
20.03.2022 16:40 11,1 C 13,9 C 3,9 C 72 % 1027,4 hPa 0,0 l/m 2 min 0 min 320 W/m 12,9 km/h (3 Bft) 94,29 %
20.03.2022 16:42 11,2 C 13,3 C 3,9 C 72 % 1027,4 hPa 0,0 l/m 2 min 0 min 251 W/m 22,5 km/h (4 Bft) 93,62 %
20.03.2022 16:44 11,2 C 14,4 C 4,4 C 72 % 1027,5 hPa 0,0 l/m 2 min 0 min 261 W/m 9,7 km/h (2 Bft) 94,83 %
20.03.2022 16:46 11,2 C 14,4 C 5,0 C 72 % 1027,5 hPa 0,0 l/m 2 min 0 min 285 W/m 16,1 km/h (3 Bft) 97,22 %
20.03.2022 16:48 11,2 C 14,4 C 5,0 C 72 % 1027,4 hPa 0,0 l/m 2 min 0 min 269 W/m 16,1 km/h (3 Bft) 100,00 %
20.03.2022 16:50 11,3 C 14,4 C 5,6 C 72 % 1027,4 hPa 0,0 l/m 2 min 0 min 256 W/m 9,7 km/h (2 Bft) 100,00 %
20.03.2022 16:52 11,3 C 14,4 C 5,6 C 72 % 1027,5 hPa 0,0 l/m 2 min 0 min 242 W/m 16,1 km/h (3 Bft) 100,00 %
20.03.2022 16:54 11,3 C 13,3 C 5,6 C 72 % 1027,4 hPa 0,0 l/m 2 min 0 min 224 W/m 22,5 km/h (4 Bft) 100,00 %
20.03.2022 16:56 11,3 C 12,8 C 5,6 C 71 % 1027,5 hPa 0,0 l/m 0 min 0 min 132 W/m 12,9 km/h (3 Bft) 100,00 %
20.03.2022 16:58 11,3 C 13,3 C 5,0 C 71 % 1027,5 hPa 0,0 l/m 2 min 0 min 205 W/m 9,7 km/h (2 Bft) 97,87 %
20.03.2022 17:00 11,3 C 13,3 C 5,0 C 71 % 1027,6 hPa 0,0 l/m 2 min 0 min 207 W/m 12,9 km/h (3 Bft) 100,00 %
20.03.2022 17:02 11,3 C 12,8 C 5,6 C 72 % 1027,5 hPa 0,0 l/m 2 min 0 min 204 W/m 12,9 km/h (3 Bft) 100,00 %
20.03.2022 17:04 11,2 C 12,8 C 5,6 C 71 % 1027,5 hPa 0,0 l/m 2 min 0 min 212 W/m 19,3 km/h (3 Bft) 100,00 %
20.03.2022 17:06 11,2 C 12,8 C 5,6 C 71 % 1027,5 hPa 0,0 l/m 2 min 0 min 220 W/m 16,1 km/h (3 Bft) 100,00 %
20.03.2022 17:08 11,2 C 12,2 C 5,6 C 71 % 1027,5 hPa 0,0 l/m 2 min 0 min 201 W/m 9,7 km/h (2 Bft) 100,00 %
20.03.2022 17:10 11,2 C 11,7 C 5,6 C 71 % 1027,5 hPa 0,0 l/m 2 min 0 min 186 W/m 6,4 km/h (2 Bft) 97,87 %
20.03.2022 17:12 11,2 C 11,7 C 5,6 C 71 % 1027,5 hPa 0,0 l/m 2 min 0 min 160 W/m 12,9 km/h (3 Bft) 97,83 %
20.03.2022 17:14 11,2 C 11,7 C 5,6 C 71 % 1027,5 hPa 0,0 l/m 2 min 0 min 218 W/m 12,9 km/h (3 Bft) 97,87 %
20.03.2022 17:16 11,2 C 11,7 C 5,6 C 71 % 1027,5 hPa 0,0 l/m 2 min 0 min 216 W/m 9,7 km/h (2 Bft) 97,87 %
20.03.2022 17:18 11,2 C 11,7 C 5,6 C 71 % 1027,5 hPa 0,0 l/m 2 min 0 min 196 W/m 6,4 km/h (2 Bft) 97,87 %
20.03.2022 17:20 11,2 C 11,7 C 5,6 C 71 % 1027,5 hPa 0,0 l/m 2 min 0 min 185 W/m 9,7 km/h (2 Bft) 97,87 %
20.03.2022 17:22 11,2 C 12,2 C 5,6 C 71 % 1027,5 hPa 0,0 l/m 2 min 0 min 192 W/m 6,4 km/h (2 Bft) 97,87 %
20.03.2022 17:24 11,2 C 12,2 C 5,6 C 71 % 1027,5 hPa 0,0 l/m 2 min 0 min 188 W/m 3,2 km/h (1 Bft) 97,83 %
20.03.2022 17:26 11,3 C 12,8 C 5,6 C 71 % 1027,5 hPa 0,0 l/m 2 min 0 min 180 W/m 3,2 km/h (1 Bft) 95,74 %
20.03.2022 17:28 11,3 C 12,8 C 5,6 C 71 % 1027,5 hPa 0,0 l/m 2 min 0 min 164 W/m 6,4 km/h (2 Bft) 97,87 %
20.03.2022 17:30 11,3 C 13,3 C 5,6 C 71 % 1027,5 hPa 0,0 l/m 2 min 0 min 155 W/m 12,9 km/h (3 Bft) 97,87 %
20.03.2022 17:32 11,3 C 12,8 C 5,6 C 70 % 1027,6 hPa 0,0 l/m 2 min 0 min 153 W/m 9,7 km/h (2 Bft) 95,74 %
20.03.2022 17:34 11,4 C 12,8 C 5,6 C 69 % 1027,6 hPa 0,0 l/m 2 min 0 min 142 W/m 12,9 km/h (3 Bft) 95,74 %
20.03.2022 17:36 11,4 C 12,8 C 5,6 C 69 % 1027,6 hPa 0,0 l/m 2 min 0 min 127 W/m 6,4 km/h (2 Bft) 98,28 %
20.03.2022 17:38 11,4 C 12,8 C 5,6 C 69 % 1027,6 hPa 0,0 l/m 2 min 0 min 114 W/m 9,7 km/h (2 Bft) 97,87 %
20.03.2022 17:40 11,4 C 12,8 C 5,6 C 69 % 1027,6 hPa 0,0 l/m 2 min 0 min 106 W/m 9,7 km/h (2 Bft) 94,29 %
20.03.2022 17:42 11,4 C 12,2 C 5,6 C 69 % 1027,7 hPa 0,0 l/m 2 min 0 min 96 W/m 12,9 km/h (3 Bft) 95,74 %
20.03.2022 17:44 11,4 C 12,2 C 5,6 C 69 % 1027,7 hPa 0,0 l/m 2 min 0 min 90 W/m 6,4 km/h (2 Bft) 97,87 %
20.03.2022 17:46 11,4 C 12,2 C 5,6 C 69 % 1027,7 hPa 0,0 l/m 2 min 0 min 86 W/m 6,4 km/h (2 Bft) 97,87 %
20.03.2022 17:48 11,4 C 11,7 C 5,6 C 69 % 1027,7 hPa 0,0 l/m 2 min 0 min 86 W/m 9,7 km/h (2 Bft) 97,83 %
20.03.2022 17:50 11,5 C 11,7 C 5,6 C 69 % 1027,7 hPa 0,0 l/m 2 min 0 min 86 W/m 3,2 km/h (1 Bft) 95,74 %
20.03.2022 17:52 11,5 C 11,7 C 5,6 C 69 % 1027,7 hPa 0,0 l/m 2 min 0 min 76 W/m 6,4 km/h (2 Bft) 95,74 %
20.03.2022 17:54 11,4 C 11,1 C 5,6 C 69 % 1027,7 hPa 0,0 l/m 2 min 0 min 67 W/m 6,4 km/h (2 Bft) 97,87 %
20.03.2022 17:56 11,4 C 11,1 C 5,6 C 70 % 1027,8 hPa 0,0 l/m 2 min 0 min 65 W/m 6,4 km/h (2 Bft) 97,87 %
20.03.2022 17:58 11,4 C 10,6 C 5,6 C 69 % 1027,8 hPa 0,0 l/m 2 min 0 min 65 W/m 12,9 km/h (3 Bft) 97,87 %
20.03.2022 18:00 11,3 C 10,6 C 5,6 C 69 % 1027,9 hPa 0,0 l/m 2 min 0 min 65 W/m 12,9 km/h (3 Bft) 95,65 %
20.03.2022 18:02 11,3 C 10,6 C 5,6 C 69 % 1027,9 hPa 0,0 l/m 2 min 0 min 64 W/m 9,7 km/h (2 Bft) 97,87 %
20.03.2022 18:04 11,3 C 10,0 C 5,6 C 69 % 1027,9 hPa 0,0 l/m 2 min 0 min 61 W/m 6,4 km/h (2 Bft) 100,00 %
20.03.2022 18:08 11,1 C 10,0 C 5,6 C 69 % 1027,8 hPa 0,0 l/m 4 min 0 min 47 W/m 19,3 km/h (3 Bft) 97,92 %
20.03.2022 18:10 11,1 C 10,0 C 5,6 C 69 % 1027,8 hPa 0,0 l/m 0 min 0 min 40 W/m 16,1 km/h (3 Bft) 97,87 %
20.03.2022 18:12 10,9 C 10,0 C 5,6 C 69 % 1027,9 hPa 0,0 l/m 2 min 0 min 43 W/m 16,1 km/h (3 Bft) 97,83 %
20.03.2022 18:14 10,9 C 9,4 C 5,6 C 70 % 1028,0 hPa 0,0 l/m 2 min 0 min 43 W/m 6,4 km/h (2 Bft) 95,74 %
20.03.2022 18:16 10,8 C 9,4 C 5,6 C 70 % 1028,0 hPa 0,0 l/m 2 min 0 min 39 W/m 9,7 km/h (2 Bft) 95,74 %
20.03.2022 18:18 10,8 C 9,4 C 5,6 C 70 % 1028,0 hPa 0,0 l/m 2 min 0 min 43 W/m 12,9 km/h (3 Bft) 97,87 %
20.03.2022 18:20 10,7 C 9,4 C 5,6 C 70 % 1027,9 hPa 0,0 l/m 2 min 0 min 47 W/m 16,1 km/h (3 Bft) 97,87 %
20.03.2022 18:22 10,6 C 9,4 C 5,6 C 70 % 1027,9 hPa 0,0 l/m 2 min 0 min 47 W/m 12,9 km/h (3 Bft) 97,83 %
20.03.2022 18:24 10,6 C 9,4 C 5,6 C 70 % 1028,0 hPa 0,0 l/m 2 min 0 min 43 W/m 16,1 km/h (3 Bft) 97,87 %
20.03.2022 18:26 10,5 C 9,4 C 5,6 C 70 % 1028,0 hPa 0,0 l/m 2 min 0 min 36 W/m 16,1 km/h (3 Bft) 95,74 %
20.03.2022 18:28 10,4 C 9,4 C 5,6 C 70 % 1028,0 hPa 0,0 l/m 2 min 0 min 39 W/m 19,3 km/h (3 Bft) 97,87 %
20.03.2022 18:30 10,3 C 9,4 C 5,6 C 70 % 1028,0 hPa 0,0 l/m 2 min 0 min 36 W/m 12,9 km/h (3 Bft) 97,87 %
20.03.2022 18:32 10,3 C 9,4 C 5,6 C 70 % 1028,0 hPa 0,0 l/m 2 min 0 min 30 W/m 16,1 km/h (3 Bft) 97,87 %
20.03.2022 18:34 10,2 C 9,4 C 5,6 C 70 % 1028,0 hPa 0,0 l/m 2 min 0 min 21 W/m 16,1 km/h (3 Bft) 95,65 %
20.03.2022 18:36 10,2 C 8,9 C 5,0 C 70 % 1028,1 hPa 0,0 l/m 0 min 0 min 15 W/m 19,3 km/h (3 Bft) 97,87 %
20.03.2022 18:38 10,2 C 8,9 C 5,0 C 70 % 1028,2 hPa 0,0 l/m 0 min 0 min 12 W/m 12,9 km/h (3 Bft) 93,62 %
20.03.2022 18:40 10,1 C 8,9 C 5,0 C 70 % 1028,2 hPa 0,0 l/m 0 min 0 min 11 W/m 19,3 km/h (3 Bft) 95,74 %
20.03.2022 18:42 10,1 C 8,9 C 5,0 C 70 % 1028,1 hPa 0,0 l/m 0 min 0 min 10 W/m 12,9 km/h (3 Bft) 95,74 %
20.03.2022 18:44 10,0 C 8,9 C 5,0 C 70 % 1028,2 hPa 0,0 l/m 0 min 0 min 8 W/m 12,9 km/h (3 Bft) 97,87 %
20.03.2022 18:46 9,9 C 8,9 C 5,0 C 70 % 1028,3 hPa 0,0 l/m 0 min 0 min 7 W/m 12,9 km/h (3 Bft) 97,83 %
20.03.2022 18:48 9,9 C 8,9 C 5,0 C 70 % 1028,3 hPa 0,0 l/m 0 min 0 min 7 W/m 12,9 km/h (3 Bft) 95,74 %
20.03.2022 18:50 9,8 C 8,9 C 5,0 C 69 % 1028,4 hPa 0,0 l/m 0 min 0 min 9 W/m 19,3 km/h (3 Bft) 97,87 %
20.03.2022 18:52 9,8 C 8,9 C 5,0 C 69 % 1028,4 hPa 0,0 l/m 0 min 0 min 8 W/m 19,3 km/h (3 Bft) 97,87 %
20.03.2022 18:54 9,7 C 8,3 C 5,0 C 69 % 1028,4 hPa 0,0 l/m 0 min 0 min 4 W/m 12,9 km/h (3 Bft) 97,87 %
20.03.2022 18:56 9,7 C 8,3 C 5,0 C 69 % 1028,3 hPa 0,0 l/m 0 min 0 min 0 W/m 9,7 km/h (2 Bft) 97,87 %
20.03.2022 18:58 9,7 C 8,3 C 5,0 C 69 % 1028,4 hPa 0,0 l/m 0 min 0 min 0 W/m 16,1 km/h (3 Bft) 97,83 %
20.03.2022 19:00 9,6 C 8,3 C 5,0 C 69 % 1028,4 hPa 0,0 l/m 0 min 0 min 0 W/m 12,9 km/h (3 Bft) 97,87 %
20.03.2022 19:02 9,6 C 8,3 C 5,0 C 69 % 1028,4 hPa 0,0 l/m 0 min 0 min 0 W/m 16,1 km/h (3 Bft) 97,87 %
20.03.2022 19:04 9,6 C 8,3 C 5,0 C 69 % 1028,4 hPa 0,0 l/m 0 min 0 min 0 W/m 9,7 km/h (2 Bft) 93,62 %
20.03.2022 19:06 9,5 C 8,3 C 5,0 C 69 % 1028,4 hPa 0,0 l/m 0 min 0 min 0 W/m 9,7 km/h (2 Bft) 97,87 %
20.03.2022 19:08 9,5 C 8,3 C 5,0 C 69 % 1028,5 hPa 0,0 l/m 0 min 0 min 0 W/m 16,1 km/h (3 Bft) 97,87 %
20.03.2022 19:10 9,5 C 8,3 C 5,0 C 69 % 1028,4 hPa 0,0 l/m 0 min 0 min 0 W/m 12,9 km/h (3 Bft) 97,83 %
20.03.2022 19:12 9,4 C 8,3 C 5,0 C 69 % 1028,4 hPa 0,0 l/m 0 min 0 min 0 W/m 12,9 km/h (3 Bft) 97,87 %
20.03.2022 19:14 9,4 C 8,3 C 5,0 C 68 % 1028,5 hPa 0,0 l/m 0 min 0 min 0 W/m 16,1 km/h (3 Bft) 95,74 %
20.03.2022 19:16 9,4 C 8,3 C 5,0 C 68 % 1028,5 hPa 0,0 l/m 0 min 0 min 0 W/m 6,4 km/h (2 Bft) 97,87 %
20.03.2022 19:18 9,4 C 8,3 C 5,0 C 68 % 1028,4 hPa 0,0 l/m 0 min 0 min 0 W/m 12,9 km/h (3 Bft) 97,87 %
20.03.2022 19:20 9,4 C 8,3 C 5,0 C 68 % 1028,5 hPa 0,0 l/m 0 min 0 min 0 W/m 12,9 km/h (3 Bft) 97,87 %
20.03.2022 19:22 9,4 C 8,3 C 5,0 C 68 % 1028,5 hPa 0,0 l/m 0 min 0 min 0 W/m 12,9 km/h (3 Bft) 95,65 %
20.03.2022 19:24 9,4 C 8,3 C 5,0 C 68 % 1028,5 hPa 0,0 l/m 0 min 0 min 0 W/m 6,4 km/h (2 Bft) 95,74 %
20.03.2022 19:26 9,4 C 8,3 C 5,0 C 68 % 1028,5 hPa 0,0 l/m 0 min 0 min 0 W/m 16,1 km/h (3 Bft) 100,00 %
20.03.2022 19:28 9,3 C 8,3 C 4,4 C 68 % 1028,4 hPa 0,0 l/m 0 min 0 min 0 W/m 12,9 km/h (3 Bft) 97,87 %
20.03.2022 19:30 9,3 C 8,3 C 4,4 C 68 % 1028,5 hPa 0,0 l/m 0 min 0 min 0 W/m 9,7 km/h (2 Bft) 97,87 %
20.03.2022 19:32 9,3 C 8,3 C 4,4 C 68 % 1028,5 hPa 0,0 l/m 0 min 0 min 0 W/m 6,4 km/h (2 Bft) 100,00 %
20.03.2022 19:34 9,3 C 8,3 C 4,4 C 68 % 1028,5 hPa 0,0 l/m 0 min 0 min 0 W/m 6,4 km/h (2 Bft) 97,83 %
20.03.2022 19:36 9,3 C 8,3 C 4,4 C 68 % 1028,6 hPa 0,0 l/m 0 min 0 min 0 W/m 6,4 km/h (2 Bft) 95,74 %
20.03.2022 19:38 9,3 C 8,3 C 4,4 C 68 % 1028,6 hPa 0,0 l/m 0 min 0 min 0 W/m 6,4 km/h (2 Bft) 97,87 %
20.03.2022 19:40 9,3 C 8,3 C 4,4 C 68 % 1028,5 hPa 0,0 l/m 0 min 0 min 0 W/m 6,4 km/h (2 Bft) 95,74 %
20.03.2022 19:42 9,3 C 8,3 C 4,4 C 68 % 1028,6 hPa 0,0 l/m 0 min 0 min 0 W/m 12,9 km/h (3 Bft) 97,87 %
20.03.2022 19:44 9,3 C 8,3 C 4,4 C 67 % 1028,6 hPa 0,0 l/m 0 min 0 min 0 W/m 12,9 km/h (3 Bft) 97,87 %
20.03.2022 19:46 9,3 C 8,3 C 4,4 C 67 % 1028,6 hPa 0,0 l/m 0 min 0 min 0 W/m 6,4 km/h (2 Bft) 40,54 %
20.03.2022 19:48 9,2 C 8,3 C 4,4 C 67 % 1028,7 hPa 0,0 l/m 0 min 0 min 0 W/m 6,4 km/h (2 Bft) 97,87 %
20.03.2022 19:50 9,2 C 8,3 C 4,4 C 67 % 1028,7 hPa 0,0 l/m 0 min 0 min 0 W/m 9,7 km/h (2 Bft) 97,87 %
20.03.2022 19:52 9,2 C 8,3 C 4,4 C 67 % 1028,8 hPa 0,0 l/m 0 min 0 min 0 W/m 6,4 km/h (2 Bft) 97,87 %
20.03.2022 19:54 9,2 C 8,3 C 4,4 C 68 % 1028,8 hPa 0,0 l/m 0 min 0 min 0 W/m 3,2 km/h (1 Bft) 97,87 %
20.03.2022 19:56 9,2 C 8,3 C 4,4 C 68 % 1028,8 hPa 0,0 l/m 0 min 0 min 0 W/m 3,2 km/h (1 Bft) 95,74 %
20.03.2022 19:58 9,2 C 8,3 C 4,4 C 68 % 1028,8 hPa 0,0 l/m 0 min 0 min 0 W/m 6,4 km/h (2 Bft) 97,83 %
20.03.2022 20:00 9,2 C 8,3 C 4,4 C 68 % 1028,8 hPa 0,0 l/m 0 min 0 min 0 W/m 6,4 km/h (2 Bft) 97,87 %
20.03.2022 20:02 9,2 C 8,3 C 4,4 C 68 % 1028,9 hPa 0,0 l/m 0 min 0 min 0 W/m 6,4 km/h (2 Bft) 95,74 %
20.03.2022 20:04 9,2 C 8,3 C 4,4 C 68 % 1028,9 hPa 0,0 l/m 0 min 0 min 0 W/m 6,4 km/h (2 Bft) 97,87 %
20.03.2022 20:06 9,1 C 8,3 C 4,4 C 68 % 1028,9 hPa 0,0 l/m 0 min 0 min 0 W/m 6,4 km/h (2 Bft) 97,87 %
20.03.2022 20:08 9,1 C 8,3 C 4,4 C 68 % 1028,9 hPa 0,0 l/m 0 min 0 min 0 W/m 6,4 km/h (2 Bft) 97,87 %
20.03.2022 20:10 9,1 C 8,3 C 4,4 C 68 % 1028,9 hPa 0,0 l/m 0 min 0 min 0 W/m 9,7 km/h (2 Bft) 100,00 %
20.03.2022 20:12 9,1 C 8,3 C 4,4 C 68 % 1028,8 hPa 0,0 l/m 0 min 0 min 0 W/m 6,4 km/h (2 Bft) 95,74 %
20.03.2022 20:14 9,1 C 7,8 C 4,4 C 68 % 1028,8 hPa 0,0 l/m 0 min 0 min 0 W/m 3,2 km/h (1 Bft) 100,00 %
20.03.2022 20:16 9,1 C 7,8 C 4,4 C 68 % 1028,9 hPa 0,0 l/m 0 min 0 min 0 W/m 3,2 km/h (1 Bft) 100,00 %
20.03.2022 20:18 9,1 C 7,8 C 4,4 C 68 % 1028,9 hPa 0,0 l/m 0 min 0 min 0 W/m 6,4 km/h (2 Bft) 95,74 %
20.03.2022 20:20 9,1 C 8,3 C 4,4 C 68 % 1028,9 hPa 0,0 l/m 0 min 0 min 0 W/m 6,4 km/h (2 Bft) 97,83 %
20.03.2022 20:22 9,0 C 8,3 C 4,4 C 68 % 1029,0 hPa 0,0 l/m 0 min 0 min 0 W/m 6,4 km/h (2 Bft) 100,00 %
20.03.2022 20:24 9,0 C 8,3 C 4,4 C 68 % 1029,1 hPa 0,0 l/m 0 min 0 min 0 W/m 6,4 km/h (2 Bft) 100,00 %
20.03.2022 20:26 9,0 C 8,3 C 4,4 C 68 % 1029,0 hPa 0,0 l/m 0 min 0 min 0 W/m 3,2 km/h (1 Bft) 97,87 %
20.03.2022 20:28 9,0 C 8,3 C 4,4 C 68 % 1029,1 hPa 0,0 l/m 0 min 0 min 0 W/m 12,9 km/h (3 Bft) 95,74 %
20.03.2022 20:30 8,9 C 8,3 C 4,4 C 68 % 1028,9 hPa 0,0 l/m 0 min 2 min 0 W/m 12,9 km/h (3 Bft) 97,87 %
20.03.2022 20:32 9,0 C 8,3 C 3,9 C 69 % 1029,1 hPa 0,0 l/m 0 min 2 min 0 W/m 12,9 km/h (3 Bft) 95,65 %
20.03.2022 20:34 8,9 C 7,8 C 3,9 C 69 % 1029,1 hPa 0,0 l/m 0 min 2 min 0 W/m 16,1 km/h (3 Bft) 97,87 %
20.03.2022 20:36 8,9 C 7,8 C 3,3 C 70 % 1029,2 hPa 0,2 l/m 0 min 2 min 0 W/m 12,9 km/h (3 Bft) 97,87 %
20.03.2022 20:38 8,9 C 7,8 C 3,3 C 70 % 1029,1 hPa 0,0 l/m 0 min 2 min 0 W/m 12,9 km/h (3 Bft) 97,87 %
20.03.2022 20:40 8,9 C 7,8 C 2,8 C 71 % 1029,2 hPa 0,0 l/m 0 min 2 min 0 W/m 6,4 km/h (2 Bft) 97,87 %
20.03.2022 20:42 8,9 C 7,8 C 2,8 C 71 % 1029,2 hPa 0,0 l/m 0 min 0 min 0 W/m 9,7 km/h (2 Bft) 95,74 %
20.03.2022 20:44 8,8 C 7,8 C 2,8 C 71 % 1029,2 hPa 0,0 l/m 0 min 2 min 0 W/m 6,4 km/h (2 Bft) 97,83 %
20.03.2022 20:46 8,8 C 7,8 C 2,8 C 72 % 1029,2 hPa 0,0 l/m 0 min 2 min 0 W/m 6,4 km/h (2 Bft) 97,87 %
20.03.2022 20:48 8,8 C 7,8 C 2,2 C 72 % 1029,2 hPa 0,0 l/m 0 min 2 min 0 W/m 9,7 km/h (2 Bft) 97,87 %
20.03.2022 20:50 8,8 C 7,2 C 2,2 C 72 % 1029,3 hPa 0,0 l/m 0 min 2 min 0 W/m 12,9 km/h (3 Bft) 97,87 %
20.03.2022 20:52 8,8 C 7,2 C 2,2 C 73 % 1029,3 hPa 0,0 l/m 0 min 2 min 0 W/m 12,9 km/h (3 Bft) 97,87 %
20.03.2022 20:54 8,7 C 7,2 C 2,2 C 74 % 1029,4 hPa 0,0 l/m 0 min 2 min 0 W/m 6,4 km/h (2 Bft) 97,87 %
20.03.2022 20:56 8,7 C 7,2 C 2,2 C 74 % 1029,5 hPa 0,0 l/m 0 min 2 min 0 W/m 6,4 km/h (2 Bft) 97,83 %
20.03.2022 20:58 8,6 C 7,2 C 2,2 C 74 % 1029,5 hPa 0,2 l/m 0 min 2 min 0 W/m 6,4 km/h (2 Bft) 97,87 %
20.03.2022 21:00 8,6 C 7,2 C 1,7 C 75 % 1029,5 hPa 0,0 l/m 0 min 2 min 0 W/m 6,4 km/h (2 Bft) 97,87 %
20.03.2022 21:02 8,5 C 7,2 C 1,7 C 75 % 1029,5 hPa 0,0 l/m 0 min 2 min 0 W/m 6,4 km/h (2 Bft) 100,00 %
20.03.2022 21:04 8,4 C 7,2 C 1,7 C 75 % 1029,6 hPa 0,0 l/m 0 min 2 min 0 W/m 6,4 km/h (2 Bft) 100,00 %
20.03.2022 21:06 8,4 C 7,2 C 1,7 C 76 % 1029,6 hPa 0,2 l/m 0 min 2 min 0 W/m 6,4 km/h (2 Bft) 100,00 %
20.03.2022 21:08 8,3 C 6,7 C 1,7 C 76 % 1029,6 hPa 0,0 l/m 0 min 2 min 0 W/m 3,2 km/h (1 Bft) 100,00 %
20.03.2022 21:10 8,3 C 6,7 C 1,7 C 76 % 1029,7 hPa 0,0 l/m 0 min 2 min 0 W/m 3,2 km/h (1 Bft) 100,00 %
20.03.2022 21:12 8,3 C 6,7 C 1,7 C 77 % 1029,7 hPa 0,0 l/m 0 min 2 min 0 W/m 6,4 km/h (2 Bft) 97,87 %
20.03.2022 21:14 8,2 C 6,7 C 1,7 C 77 % 1029,6 hPa 0,0 l/m 0 min 2 min 0 W/m 3,2 km/h (1 Bft) 100,00 %
20.03.2022 21:16 8,2 C 6,7 C 1,7 C 78 % 1029,7 hPa 0,0 l/m 0 min 2 min 0 W/m 6,4 km/h (2 Bft) 85,11 %
20.03.2022 21:18 8,1 C 6,7 C 1,7 C 78 % 1029,6 hPa 0,0 l/m 0 min 2 min 0 W/m 3,2 km/h (1 Bft) 65,79 %
20.03.2022 21:20 8,1 C 6,7 C 2,2 C 78 % 1029,7 hPa 0,0 l/m 0 min 2 min 0 W/m 3,2 km/h (1 Bft) 100,00 %
20.03.2022 21:22 8,1 C 6,7 C 2,2 C 79 % 1029,7 hPa 0,0 l/m 0 min 2 min 0 W/m 0,0 km/h (0 Bft) 100,00 %
20.03.2022 21:24 8,0 C 6,7 C 2,2 C 79 % 1029,7 hPa 0,0 l/m 0 min 0 min 0 W/m 3,2 km/h (1 Bft) 97,87 %
20.03.2022 21:26 8,0 C 6,7 C 1,7 C 79 % 1029,6 hPa 0,0 l/m 0 min 2 min 0 W/m 3,2 km/h (1 Bft) 100,00 %
20.03.2022 21:28 7,9 C 6,7 C 1,7 C 79 % 1029,7 hPa 0,0 l/m 0 min 0 min 0 W/m 3,2 km/h (1 Bft) 97,87 %
20.03.2022 21:30 7,9 C 6,7 C 1,7 C 79 % 1029,7 hPa 0,0 l/m 0 min 2 min 0 W/m 3,2 km/h (1 Bft) 97,87 %
20.03.2022 21:32 7,9 C 6,7 C 1,7 C 79 % 1029,8 hPa 0,0 l/m 0 min 0 min 0 W/m 3,2 km/h (1 Bft) 95,65 %
20.03.2022 21:34 7,9 C 6,7 C 1,7 C 80 % 1029,7 hPa 0,0 l/m 0 min 0 min 0 W/m 3,2 km/h (1 Bft) 95,74 %
20.03.2022 21:36 7,9 C 6,7 C 1,7 C 80 % 1029,7 hPa 0,0 l/m 0 min 2 min 0 W/m 0,0 km/h (0 Bft) 97,87 %
20.03.2022 21:38 7,8 C 6,7 C 2,2 C 80 % 1029,8 hPa 0,0 l/m 0 min 2 min 0 W/m 0,0 km/h (0 Bft) 97,87 %
20.03.2022 21:40 7,8 C 6,7 C 2,2 C 80 % 1029,7 hPa 0,0 l/m 0 min 2 min 0 W/m 0,0 km/h (0 Bft) 95,74 %
20.03.2022 21:42 7,8 C 6,7 C 2,2 C 80 % 1029,7 hPa 0,0 l/m 0 min 0 min 0 W/m 0,0 km/h (0 Bft) 95,74 %
20.03.2022 21:44 7,8 C 6,1 C 2,2 C 80 % 1029,7 hPa 0,0 l/m 0 min 0 min 0 W/m 3,2 km/h (1 Bft) 95,65 %
20.03.2022 21:46 7,8 C 6,1 C 2,2 C 81 % 1029,8 hPa 0,0 l/m 0 min 0 min 0 W/m 3,2 km/h (1 Bft) 95,74 %
20.03.2022 21:48 7,8 C 6,1 C 2,2 C 81 % 1029,7 hPa 0,0 l/m 0 min 0 min 0 W/m 0,0 km/h (0 Bft) 95,74 %
20.03.2022 21:50 7,8 C 6,1 C 2,2 C 81 % 1029,7 hPa 0,0 l/m 0 min 0 min 0 W/m 0,0 km/h (0 Bft) 95,74 %
20.03.2022 21:52 7,8 C 6,1 C 2,2 C 81 % 1029,6 hPa 0,0 l/m 0 min 2 min 0 W/m 0,0 km/h (0 Bft) 95,74 %
20.03.2022 21:54 7,8 C 6,1 C 2,2 C 81 % 1029,7 hPa 0,0 l/m 0 min 2 min 0 W/m 0,0 km/h (0 Bft) 95,74 %
20.03.2022 21:56 7,8 C 6,1 C 2,2 C 82 % 1029,8 hPa 0,0 l/m 0 min 0 min 0 W/m 0,0 km/h (0 Bft) 95,65 %
20.03.2022 21:58 7,8 C 6,1 C 2,2 C 82 % 1029,8 hPa 0,0 l/m 0 min 0 min 0 W/m 3,2 km/h (1 Bft) 93,62 %
20.03.2022 22:00 7,7 C 6,1 C 2,2 C 83 % 1029,8 hPa 0,0 l/m 0 min 0 min 0 W/m 0,0 km/h (0 Bft) 97,87 %
20.03.2022 22:02 7,7 C 6,1 C 2,2 C 83 % 1029,8 hPa 0,0 l/m 0 min 0 min 0 W/m 0,0 km/h (0 Bft) 95,74 %
20.03.2022 22:04 7,7 C 6,1 C 2,2 C 83 % 1029,7 hPa 0,0 l/m 0 min 0 min 0 W/m 0,0 km/h (0 Bft) 97,87 %
20.03.2022 22:06 7,7 C 6,1 C 2,2 C 83 % 1029,8 hPa 0,0 l/m 0 min 0 min 0 W/m 0,0 km/h (0 Bft) 97,83 %
20.03.2022 22:08 7,7 C 6,1 C 2,2 C 83 % 1029,8 hPa 0,2 l/m 0 min 2 min 0 W/m 0,0 km/h (0 Bft) 95,74 %
20.03.2022 22:10 7,7 C 6,1 C 2,2 C 83 % 1029,8 hPa 0,0 l/m 0 min 2 min 0 W/m 3,2 km/h (1 Bft) 97,87 %
20.03.2022 22:12 7,6 C 6,1 C 2,2 C 83 % 1029,9 hPa 0,0 l/m 0 min 0 min 0 W/m 0,0 km/h (0 Bft) 97,87 %
20.03.2022 22:14 7,6 C 6,1 C 2,2 C 84 % 1029,8 hPa 0,0 l/m 0 min 2 min 0 W/m 0,0 km/h (0 Bft) 97,87 %
20.03.2022 22:16 7,6 C 6,1 C 2,2 C 84 % 1029,8 hPa 0,0 l/m 0 min 2 min 0 W/m 0,0 km/h (0 Bft) 93,62 %
20.03.2022 22:18 7,6 C 6,1 C 2,2 C 84 % 1029,7 hPa 0,0 l/m 0 min 2 min 0 W/m 3,2 km/h (1 Bft) 97,83 %
20.03.2022 22:20 7,6 C 6,1 C 2,2 C 84 % 1030,0 hPa 0,0 l/m 0 min 0 min 0 W/m 3,2 km/h (1 Bft) 95,74 %
20.03.2022 22:22 7,6 C 6,1 C 2,2 C 85 % 1030,1 hPa 0,0 l/m 0 min 2 min 0 W/m 0,0 km/h (0 Bft) 95,74 %
20.03.2022 22:24 7,5 C 6,1 C 2,2 C 85 % 1030,1 hPa 0,0 l/m 0 min 2 min 0 W/m 3,2 km/h (1 Bft) 95,74 %
20.03.2022 22:26 7,5 C 6,1 C 2,2 C 85 % 1030,0 hPa 0,0 l/m 0 min 2 min 0 W/m 0,0 km/h (0 Bft) 95,74 %
20.03.2022 22:28 7,4 C 6,1 C 2,2 C 85 % 1030,0 hPa 0,0 l/m 0 min 2 min 0 W/m 0,0 km/h (0 Bft) 95,74 %
20.03.2022 22:30 7,4 C 6,1 C 2,2 C 85 % 1030,0 hPa 0,0 l/m 0 min 2 min 0 W/m 0,0 km/h (0 Bft) 95,65 %
20.03.2022 22:32 7,4 C 6,1 C 2,2 C 85 % 1029,9 hPa 0,0 l/m 0 min 2 min 0 W/m 0,0 km/h (0 Bft) 95,74 %
20.03.2022 22:34 7,4 C 6,1 C 2,2 C 85 % 1030,0 hPa 0,0 l/m 0 min 2 min 0 W/m 0,0 km/h (0 Bft) 93,75 %
20.03.2022 22:36 7,4 C 6,1 C 2,2 C 86 % 1030,0 hPa 0,0 l/m 0 min 2 min 0 W/m 0,0 km/h (0 Bft) 95,74 %
20.03.2022 22:38 7,4 C 6,1 C 2,2 C 85 % 1030,1 hPa 0,0 l/m 0 min 2 min 0 W/m 0,0 km/h (0 Bft) 95,74 %
20.03.2022 22:40 7,3 C 6,1 C 2,2 C 85 % 1030,1 hPa 0,0 l/m 0 min 0 min 0 W/m 3,2 km/h (1 Bft) 95,65 %
20.03.2022 22:42 7,3 C 6,1 C 2,2 C 86 % 1030,1 hPa 0,0 l/m 0 min 2 min 0 W/m 3,2 km/h (1 Bft) 95,74 %
20.03.2022 22:44 7,3 C 6,1 C 2,2 C 86 % 1030,1 hPa 0,0 l/m 0 min 2 min 0 W/m 0,0 km/h (0 Bft) 93,62 %
20.03.2022 22:46 7,3 C 6,1 C 2,2 C 86 % 1030,0 hPa 0,2 l/m 0 min 2 min 0 W/m 0,0 km/h (0 Bft) 95,74 %
20.03.2022 22:48 7,3 C 6,1 C 2,2 C 86 % 1030,0 hPa 0,0 l/m 0 min 2 min 0 W/m 0,0 km/h (0 Bft) 95,74 %
20.03.2022 22:50 7,3 C 6,1 C 2,2 C 86 % 1030,0 hPa 0,0 l/m 0 min 0 min 0 W/m 0,0 km/h (0 Bft) 95,74 %
20.03.2022 22:52 7,3 C 6,1 C 2,2 C 86 % 1030,0 hPa 0,0 l/m 0 min 0 min 0 W/m 0,0 km/h (0 Bft) 97,83 %
20.03.2022 22:54 7,3 C 6,1 C 2,2 C 86 % 1030,0 hPa 0,0 l/m 0 min 0 min 0 W/m 0,0 km/h (0 Bft) 100,00 %
20.03.2022 22:56 7,3 C 6,1 C 2,2 C 86 % 1029,9 hPa 0,0 l/m 0 min 0 min 0 W/m 0,0 km/h (0 Bft) 97,87 %
20.03.2022 22:58 7,3 C 6,1 C 2,2 C 86 % 1030,0 hPa 0,0 l/m 0 min 0 min 0 W/m 0,0 km/h (0 Bft) 100,00 %
20.03.2022 23:00 7,3 C 6,1 C 2,2 C 87 % 1030,1 hPa 0,0 l/m 0 min 0 min 0 W/m 0,0 km/h (0 Bft) 100,00 %
20.03.2022 23:02 7,3 C 6,1 C 2,2 C 87 % 1030,1 hPa 0,0 l/m 0 min 0 min 0 W/m 3,2 km/h (1 Bft) 100,00 %
20.03.2022 23:04 7,2 C 6,1 C 2,2 C 87 % 1030,1 hPa 0,0 l/m 0 min 0 min 0 W/m 0,0 km/h (0 Bft) 100,00 %
20.03.2022 23:06 7,2 C 6,1 C 2,2 C 87 % 1030,2 hPa 0,0 l/m 0 min 0 min 0 W/m 3,2 km/h (1 Bft) 100,00 %
20.03.2022 23:08 7,2 C 6,1 C 2,2 C 87 % 1030,2 hPa 0,0 l/m 0 min 2 min 0 W/m 3,2 km/h (1 Bft) 100,00 %
20.03.2022 23:10 7,2 C 6,1 C 2,2 C 87 % 1030,1 hPa 0,0 l/m 0 min 2 min 0 W/m 0,0 km/h (0 Bft) 100,00 %
20.03.2022 23:12 7,2 C 6,1 C 2,2 C 87 % 1030,1 hPa 0,0 l/m 0 min 2 min 0 W/m 0,0 km/h (0 Bft) 100,00 %
20.03.2022 23:14 7,2 C 6,1 C 2,2 C 88 % 1030,2 hPa 0,0 l/m 0 min 0 min 0 W/m 0,0 km/h (0 Bft) 97,87 %
20.03.2022 23:16 7,2 C 6,1 C 2,2 C 88 % 1030,1 hPa 0,0 l/m 0 min 0 min 0 W/m 3,2 km/h (1 Bft) 97,83 %
20.03.2022 23:18 7,2 C 6,1 C 2,2 C 88 % 1030,2 hPa 0,0 l/m 0 min 0 min 0 W/m 3,2 km/h (1 Bft) 97,87 %
20.03.2022 23:20 7,2 C 6,1 C 2,2 C 88 % 1030,2 hPa 0,0 l/m 0 min 2 min 0 W/m 3,2 km/h (1 Bft) 97,87 %
20.03.2022 23:22 7,1 C 6,1 C 2,2 C 88 % 1030,1 hPa 0,0 l/m 0 min 2 min 0 W/m 0,0 km/h (0 Bft) 97,87 %
20.03.2022 23:24 7,1 C 6,1 C 2,2 C 88 % 1030,1 hPa 0,0 l/m 0 min 2 min 0 W/m 0,0 km/h (0 Bft) 95,74 %
20.03.2022 23:26 7,1 C 6,1 C 2,2 C 88 % 1030,1 hPa 0,0 l/m 0 min 2 min 0 W/m 0,0 km/h (0 Bft) 95,74 %
20.03.2022 23:28 7,1 C 6,1 C 2,2 C 88 % 1030,0 hPa 0,2 l/m 0 min 2 min 0 W/m 0,0 km/h (0 Bft) 97,83 %
20.03.2022 23:30 7,1 C 6,1 C 2,2 C 88 % 1030,0 hPa 0,0 l/m 0 min 2 min 0 W/m 0,0 km/h (0 Bft) 97,87 %
20.03.2022 23:32 7,1 C 6,1 C 2,2 C 88 % 1030,0 hPa 0,0 l/m 0 min 0 min 0 W/m 3,2 km/h (1 Bft) 97,87 %
20.03.2022 23:34 7,0 C 6,1 C 2,2 C 88 % 1030,0 hPa 0,0 l/m 0 min 0 min 0 W/m 3,2 km/h (1 Bft) 97,87 %
20.03.2022 23:36 7,0 C 6,1 C 1,7 C 88 % 1030,0 hPa 0,0 l/m 0 min 0 min 0 W/m 3,2 km/h (1 Bft) 97,87 %
20.03.2022 23:38 7,0 C 6,1 C 2,2 C 88 % 1030,1 hPa 0,0 l/m 0 min 0 min 0 W/m 3,2 km/h (1 Bft) 97,87 %
20.03.2022 23:40 7,0 C 6,1 C 1,7 C 88 % 1030,1 hPa 0,0 l/m 0 min 0 min 0 W/m 0,0 km/h (0 Bft) 97,83 %
20.03.2022 23:42 6,9 C 6,1 C 2,2 C 88 % 1030,0 hPa 0,0 l/m 0 min 0 min 0 W/m 3,2 km/h (1 Bft) 100,00 %
20.03.2022 23:44 6,9 C 6,1 C 2,2 C 88 % 1030,0 hPa 0,0 l/m 0 min 0 min 0 W/m 0,0 km/h (0 Bft) 100,00 %
20.03.2022 23:46 6,9 C 6,1 C 1,7 C 88 % 1030,0 hPa 0,0 l/m 0 min 0 min 0 W/m 0,0 km/h (0 Bft) 97,87 %
20.03.2022 23:48 6,9 C 6,1 C 1,7 C 88 % 1030,1 hPa 0,0 l/m 0 min 0 min 0 W/m 0,0 km/h (0 Bft) 100,00 %
20.03.2022 23:50 6,9 C 6,1 C 1,7 C 88 % 1030,0 hPa 0,0 l/m 0 min 0 min 0 W/m 0,0 km/h (0 Bft) 100,00 %
20.03.2022 23:52 6,9 C 6,1 C 1,7 C 88 % 1030,0 hPa 0,0 l/m 0 min 0 min 0 W/m 3,2 km/h (1 Bft) 97,83 %
20.03.2022 23:54 6,9 C 6,1 C 1,7 C 88 % 1030,2 hPa 0,0 l/m 0 min 0 min 0 W/m 3,2 km/h (1 Bft) 97,87 %
20.03.2022 23:56 6,9 C 6,1 C 1,7 C 88 % 1030,2 hPa 0,0 l/m 0 min 0 min 0 W/m 6,4 km/h (2 Bft) 97,87 %
20.03.2022 23:58 6,9 C 6,1 C 1,7 C 88 % 1030,2 hPa 0,0 l/m 0 min 0 min 0 W/m 3,2 km/h (1 Bft) 97,87 %
_ Min-Zeit 06:50 06:42 06:38 12:20 12:46 - - - - 21:22 19:46
Minimum _ 2,8 C 1,7 C -1,7 C 56 % 1026,7 hPa - - - - 0,0 km/h (0 Bft) 40,54 %
_ Max-Zeit 17:50 15:32 12:42 15:22 00:00 14:02 18:08 13:10 15:30 13:24 00:20
Maximum _ 11,5 C 15,0 C 6,7 C 94 % 1034,1 hPa 0,4 l/m 4 min 2 min 602 W/m 41,8 km/h
SW (6 Bft)
100,00 %
Durchschnitt _ 7,1 C 6,9 C 2,4 C 72 % 1029,0 hPa #5,8 l/m #4:28 h #3:46 h 153 W/m 12,2 km/h (2 Bft) 97,13 %
© 2022 W. Hausmann